EW4266 Weather Reports


time (UTC)temp
F
wind
direction
speed
knots
gust
knots
rain 1hr
in
rain 24hr
in
rain mn
in
humidity
%
barometer
mb
20260902014908 69 194 0.9 2.6 0.00 0.02 0.02 79 1017.5
20260902014823 69 194 1.7 2.6 0.00 0.02 0.02 79 1017.5
20260902014654 69 192 1.7 3.5 0.00 0.02 0.02 79 1017.5
20260902014615 69 219 0.9 3.5 0.00 0.02 0.02 80 1017.5
20260902014446 69 215 0.0 3.5 0.00 0.02 0.02 81 1017.5
20260902014401 69 254 0.9 3.5 0.00 0.02 0.02 80 1017.5
20260902014220 70 234 0.9 3.5 0.00 0.02 0.02 79 1017.5
20260902014121 70 234 0.9 3.5 0.00 0.02 0.02 79 1017.4
20260902013925 70 157 1.7 3.5 0.00 0.02 0.02 76 1017.5
20260902013847 69 185 2.6 3.5 0.00 0.02 0.02 76 1017.5
20260902013751 69 148 2.6 5.2 0.00 0.02 0.02 77 1017.4
20260902013716 69 184 2.6 5.2 0.00 0.02 0.02 78 1017.4
20260902013546 70 159 1.7 5.2 0.00 0.02 0.02 78 1017.4
20260902013441 70 188 1.7 5.2 0.00 0.02 0.02 77 1017.4
20260902013325 70 159 0.9 5.2 0.00 0.02 0.02 79 1017.4
20260902013225 70 135 0.9 5.2 0.00 0.02 0.02 78 1017.4
20260902013147 70 135 1.7 5.2 0.00 0.02 0.02 77 1017.4
20260902013050 70 135 1.7 5.2 0.00 0.02 0.02 77 1017.4
20260902013012 70 176 1.7 6.1 0.00 0.02 0.02 78 1017.4
20260902012822 70 139 0.9 7.0 0.00 0.02 0.02 78 1017.4
20260902012716 70 182 0.9 7.0 0.00 0.02 0.02 78 1017.4
20260902012550 70 196 1.7 7.0 0.00 0.02 0.02 78 1017.4
20260902012511 70 188 1.7 7.0 0.00 0.02 0.02 77 1017.4
20260902012414 70 215 1.7 8.7 0.00 0.02 0.02 77 1017.4
20260902012316 70 186 0.9 8.7 0.00 0.02 0.02 77 1017.4
20260902012238 70 179 2.6 8.7 0.00 0.02 0.02 77 1017.4
20260902012109 70 162 4.3 8.7 0.00 0.02 0.02 77 1017.3
20260902012025 70 166 3.5 8.7 0.00 0.02 0.02 77 1017.3
20260902011835 70 118 3.5 8.7 0.00 0.02 0.02 77 1017.3
20260902011728 70 165 4.3 8.7 0.00 0.02 0.02 77 1017.3
20260902011659 70 155 4.3 8.7 0.00 0.02 0.02 77 1017.3
20260902011528 70 142 2.6 7.8 0.00 0.02 0.02 78 1017.3
20260902011443 70 172 2.6 9.6 0.00 0.02 0.02 78 1017.4
20260902011254 70 122 3.5 9.6 0.00 0.02 0.02 78 1017.4
20260902011215 70 205 3.5 9.6 0.00 0.02 0.02 78 1017.4
20260902011046 70 132 5.2 9.6 0.00 0.02 0.02 78 1017.3
20260902010938 69 134 5.2 9.6 0.00 0.02 0.02 79 1017.4
20260902010900 69 166 4.3 9.6 0.00 0.02 0.02 79 1017.3
20260902010752 69 159 4.3 9.6 0.00 0.02 0.02 80 1017.3
20260902010541 68 155 1.7 7.0 0.00 0.02 0.02 81 1017.3
20260902010440 68 173 2.6 7.0 0.00 0.02 0.02 81 1017.3
20260902010325 68 173 4.3 7.0 0.00 0.02 0.02 81 1017.3
20260902010247 68 182 4.3 7.0 0.00 0.02 0.02 81 1017.3
20260902010207 68 148 3.5 7.0 0.00 0.02 0.02 83 1017.3
20260902010111 68 205 2.6 7.0 0.00 0.02 0.02 83 1017.3
20260902010032 68 169 2.6 7.0 0.00 0.02 0.02 84 1017.3
20260902005902 67 154 2.6 7.0 0.00 0.02 0.02 84 1017.3
20260902005817 67 166 1.7 3.5 0.00 0.02 0.02 84 1017.3
20260902005647 67 199 0.0 3.5 0.00 0.02 0.02 85 1017.3
20260902005548 67 182 0.0 3.5 0.00 0.02 0.02 85 1017.3
20260902005511 67 182 0.9 3.5 0.00 0.02 0.02 85 1017.3
20260902005414 67 182 1.7 3.5 0.00 0.02 0.02 85 1017.3
20260902005340 67 188 0.9 3.5 0.00 0.02 0.02 86 1017.3
20260902005124 67 167 0.0 1.7 0.00 0.02 0.02 87 1017.3
20260902005025 67 153 0.0 1.7 0.00 0.02 0.02 86 1017.2
20260902004929 67 153 0.0 1.7 0.00 0.02 0.02 86 1017.2
20260902004852 67 153 0.0 1.7 0.00 0.02 0.02 87 1017.2
20260902004722 67 153 0.0 1.7 0.00 0.02 0.02 86 1017.2
20260902004637 67 153 0.0 1.7 0.00 0.02 0.02 86 1017.2
20260902004425 67 203 0.0 0.0 0.00 0.02 0.02 87 1017.2
20260902004351 67 203 0.0 0.0 0.00 0.02 0.02 87 1017.1
20260902004221 67 203 0.0 0.0 0.00 0.02 0.02 87 1017.2
20260902004146 67 203 0.0 0.0 0.00 0.02 0.02 87 1017.2
20260902004017 67 203 0.0 0.0 0.00 0.02 0.02 87 1017.2
20260902003933 67 203 0.0 0.0 0.00 0.02 0.02 87 1017.2
20260902003804 67 203 0.0 0.0 0.00 0.02 0.02 87 1017.2
20260902003724 67 203 0.0 0.0 0.00 0.02 0.02 87 1017.2
20260902003526 67 203 0.0 0.0 0.00 0.02 0.02 87 1017.2
20260902003448 67 203 0.0 0.0 0.00 0.02 0.02 87 1017.2
20260902003333 67 203 0.0 0.0 0.00 0.02 0.02 87 1017.2
20260902003254 67 203 0.0 0.0 0.00 0.02 0.02 87 1017.2
20260902003218 67 203 0.0 0.0 0.00 0.02 0.02 88 1017.2
20260902003119 67 203 0.0 0.0 0.00 0.02 0.02 87 1017.2
20260902003046 67 203 0.0 0.0 0.00 0.02 0.02 87 1017.2
20260902002914 67 203 0.0 0.0 0.00 0.02 0.02 87 1017.1
20260902002829 67 203 0.0 0.0 0.00 0.02 0.02 87 1017.1
20260902002640 67 203 0.0 0.0 0.00 0.02 0.02 87 1017.1
20260902002555 67 203 0.0 0.0 0.00 0.02 0.02 87 1017.0
20260902002404 67 203 0.0 0.0 0.00 0.02 0.02 87 1017.0
20260902002326 67 203 0.0 0.0 0.00 0.02 0.02 87 1017.0
20260902002129 67 203 0.0 0.0 0.00 0.02 0.02 86 1017.0
20260902002051 67 203 0.0 0.0 0.00 0.02 0.02 86 1017.0
20260902001936 67 203 0.0 0.0 0.00 0.02 0.02 86 1017.0
20260902001902 67 203 0.0 0.0 0.00 0.02 0.02 86 1017.0
20260902001731 68 203 0.0 1.7 0.00 0.02 0.02 87 1017.1
20260902001626 68 203 0.0 1.7 0.00 0.02 0.02 87 1017.1
20260902001454 68 203 0.0 1.7 0.00 0.02 0.02 86 1017.1
20260902001328 68 203 0.0 1.7 0.00 0.02 0.02 86 1017.0
20260902001230 68 203 0.0 1.7 0.00 0.02 0.02 86 1017.1
20260902001155 68 203 0.0 1.7 0.00 0.02 0.02 87 1017.1
20260902001117 68 203 0.0 1.7 0.00 0.02 0.02 86 1017.1
20260902000948 68 203 0.0 1.7 0.00 0.02 0.02 86 1017.1
20260902000915 68 203 0.0 1.7 0.00 0.02 0.02 86 1017.1
20260902000746 68 203 0.0 0.0 0.00 0.02 0.02 87 1017.2
20260902000711 68 203 0.0 0.0 0.00 0.02 0.02 87 1017.2
20260902000520 68 203 0.0 0.0 0.00 0.02 0.02 87 1017.3
20260902000415 68 203 0.0 0.0 0.00 0.02 0.02 87 1017.2
20260902000226 68 203 0.0 0.0 0.00 0.02 0.02 86 1017.2
20260902000138 68 203 0.0 0.0 0.00 0.02 0.02 86 1017.2
20260902000007 68 203 0.0 0.0 0.00 0.02 0.02 86 1017.2
20260901235930 68 203 0.0 0.0 0.00 0.02 0.02 86 1017.2
20260901235732 68 203 0.0 0.0 0.00 0.02 0.02 86 1017.2
20260901235654 68 203 0.0 0.0 0.00 0.02 0.02 86 1017.2
20260901235538 68 203 0.0 0.0 0.00 0.02 0.02 86 1017.2
20260901235504 68 203 0.0 0.0 0.00 0.02 0.02 86 1017.2
20260901235314 68 203 0.0 0.0 0.00 0.02 0.02 86 1017.1
20260901235228 68 203 0.0 0.0 0.00 0.02 0.02 86 1017.1
20260901235039 68 203 0.0 0.0 0.00 0.02 0.02 85 1017.2
20260901234934 68 203 0.0 0.0 0.00 0.02 0.02 85 1017.2
20260901234856 69 203 0.0 0.0 0.00 0.02 0.02 86 1017.2
20260901234801 69 203 0.0 0.0 0.00 0.02 0.02 86 1017.2
20260901234640 69 203 0.0 0.9 0.00 0.02 0.02 85 1017.2
20260901234523 69 203 0.0 1.7 0.00 0.02 0.02 85 1017.2
20260901234449 69 203 0.0 1.7 0.00 0.02 0.02 85 1017.1
20260901234223 69 203 0.0 1.7 0.00 0.02 0.02 85 1017.2
20260901234054 69 203 0.0 1.7 0.00 0.02 0.02 85 1017.2
20260901233948 69 203 0.0 1.7 0.00 0.02 0.02 85 1017.2
20260901233735 69 203 0.9 1.7 0.00 0.02 0.02 84 1017.2
20260901233649 69 203 0.0 1.7 0.00 0.02 0.02 84 1017.1
20260901233438 69 203 0.0 0.0 0.00 0.02 0.02 85 1017.1
20260901233333 69 203 0.0 0.0 0.00 0.02 0.02 85 1017.1
20260901233254 69 203 0.0 0.0 0.00 0.02 0.02 85 1017.1
20260901233218 69 203 0.0 0.0 0.00 0.02 0.02 85 1017.1
20260901233134 69 203 0.0 0.0 0.00 0.02 0.02 85 1017.1
20260901233002 69 203 0.0 0.0 0.00 0.02 0.02 84 1017.1
20260901232902 69 203 0.0 0.0 0.00 0.02 0.02 84 1017.1
20260901232756 69 203 0.0 0.0 0.00 0.02 0.02 83 1017.2
20260901232716 69 203 0.0 0.0 0.00 0.02 0.02 83 1017.2
20260901232638 69 203 0.0 0.0 0.00 0.02 0.02 83 1017.2
20260901232502 70 203 0.0 0.0 0.00 0.02 0.02 82 1017.2
20260901232423 70 203 0.0 0.0 0.00 0.02 0.02 82 1017.2
20260901232237 70 203 0.0 0.0 0.00 0.02 0.02 83 1017.2
20260901232123 70 203 0.0 0.0 0.00 0.02 0.02 83 1017.2
20260901232026 70 203 0.0 0.0 0.00 0.02 0.02 82 1017.2
20260901231948 70 203 0.0 0.0 0.00 0.02 0.02 81 1017.2
20260901231909 70 203 0.0 0.0 0.00 0.02 0.02 81 1017.2
20260901231812 70 203 0.0 0.0 0.00 0.02 0.02 82 1017.2
20260901231712 70 203 0.0 0.0 0.00 0.02 0.02 82 1017.2
20260901231633 70 203 0.0 0.0 0.00 0.02 0.02 81 1017.1
20260901231515 70 203 0.0 1.7 0.00 0.02 0.02 82 1017.1
20260901231437 70 203 0.0 1.7 0.00 0.02 0.02 81 1017.1
20260901231309 70 203 0.0 1.7 0.00 0.02 0.02 81 1017.1
20260901231225 70 203 0.0 1.7 0.00 0.02 0.02 81 1017.1
20260901231105 70 203 0.0 1.7 0.00 0.02 0.02 82 1017.1
20260901231026 70 203 0.0 1.7 0.00 0.02 0.02 82 1017.1
20260901230900 70 203 0.0 1.7 0.00 0.02 0.02 81 1017.0
20260901230815 70 203 0.0 1.7 0.00 0.02 0.02 80 1017.1
20260901230646 71 203 0.0 0.0 0.00 0.02 0.02 81 1017.0
20260901230547 71 203 0.0 0.0 0.00 0.02 0.02 81 1017.0
20260901230410 71 203 0.0 0.9 0.00 0.02 0.02 81 1017.0
20260901230331 71 203 0.0 0.9 0.00 0.02 0.02 81 1017.0
20260901230211 71 203 0.0 0.9 0.00 0.02 0.02 81 1016.9
20260901230126 71 203 0.0 0.9 0.00 0.02 0.02 80 1016.9
20260901225956 71 203 0.0 0.9 0.00 0.02 0.02 80 1016.9
20260901225917 71 203 0.0 0.9 0.00 0.02 0.02 79 1016.9
20260901225749 71 203 0.0 1.7 0.00 0.02 0.02 79 1016.9
20260901225626 71 203 0.0 1.7 0.00 0.02 0.02 78 1016.9
20260901225531 71 203 0.0 1.7 0.00 0.02 0.02 79 1016.9
20260901225452 71 203 0.0 1.7 0.00 0.02 0.02 77 1016.8
20260901225413 71 203 0.0 1.7 0.00 0.02 0.02 77 1016.8
20260901225318 71 203 0.0 1.7 0.00 0.02 0.02 77 1016.8
20260901225218 71 203 0.0 1.7 0.00 0.02 0.02 78 1016.7
20260901225047 71 203 0.9 6.1 0.00 0.02 0.02 77 1016.7
20260901224942 71 203 0.9 6.1 0.00 0.02 0.02 77 1016.7
20260901224903 71 200 0.0 6.1 0.00 0.02 0.02 77 1016.8
20260901224817 71 200 0.0 6.1 0.00 0.02 0.02 78 1016.8
20260901224739 71 200 0.0 6.1 0.00 0.02 0.02 78 1016.8
20260901224548 71 200 0.9 6.1 0.00 0.02 0.02 77 1016.7
20260901224454 71 221 1.7 6.1 0.00 0.02 0.02 77 1016.7
20260901224235 71 206 0.9 6.1 0.00 0.02 0.02 78 1016.7
20260901224157 71 177 0.9 3.5 0.00 0.02 0.02 78 1016.7
20260901224041 72 177 0.9 3.5 0.00 0.02 0.02 76 1016.7
20260901223924 72 177 0.9 3.5 0.00 0.02 0.02 77 1016.7
20260901223845 72 171 0.0 3.5 0.00 0.02 0.02 77 1016.7
20260901223746 72 177 0.9 3.5 0.00 0.02 0.02 77 1016.7
20260901223648 72 177 1.7 3.5 0.00 0.02 0.02 76 1016.7
20260901223528 72 188 2.6 3.5 0.00 0.02 0.02 77 1016.6
20260901223436 72 140 2.6 3.5 0.00 0.02 0.02 76 1016.6
20260901223357 72 188 1.7 3.5 0.00 0.02 0.02 77 1016.6
20260901223227 72 190 0.9 2.6 0.00 0.02 0.02 77 1016.6
20260901223127 72 190 0.9 2.6 0.00 0.02 0.02 77 1016.6
20260901223008 72 190 0.9 2.6 0.00 0.02 0.02 77 1016.6
20260901222930 72 193 0.0 2.6 0.00 0.02 0.02 77 1016.6
20260901222746 72 161 0.9 2.6 0.00 0.02 0.02 78 1016.6
20260901222527 72 145 0.9 4.3 0.00 0.02 0.02 77 1016.7
20260901222449 72 145 0.9 4.3 0.00 0.02 0.02 77 1016.7
20260901222332 72 173 0.0 4.3 0.00 0.02 0.02 77 1016.6
20260901222253 72 173 0.0 4.3 0.00 0.02 0.02 77 1016.6
20260901222140 72 173 0.0 4.3 0.00 0.02 0.02 79 1016.6
20260901222102 72 173 0.9 4.3 0.00 0.02 0.02 78 1016.6
20260901221909 72 173 2.6 4.3 0.00 0.02 0.02 77 1016.6
20260901221826 72 183 1.7 4.3 0.00 0.02 0.02 77 1016.6
20260901221635 72 144 0.0 0.9 0.00 0.02 0.02 79 1016.6
20260901221550 72 144 0.0 0.9 0.00 0.02 0.02 79 1016.6
20260901221419 72 144 0.0 0.9 0.00 0.02 0.02 79 1016.6
20260901221341 72 144 0.0 0.9 0.00 0.02 0.02 79 1016.6
20260901221210 72 144 0.0 0.9 0.00 0.02 0.02 79 1016.6
20260901221126 72 144 0.0 1.7 0.00 0.02 0.02 79 1016.6
20260901220957 72 144 0.0 1.7 0.00 0.02 0.02 80 1016.5
20260901220919 72 144 0.0 1.7 0.00 0.02 0.02 80 1016.5
20260901220719 72 144 0.0 1.7 0.00 0.02 0.02 81 1016.5
20260901220530 72 144 0.0 2.6 0.00 0.02 0.02 81 1016.5
20260901220424 72 144 0.9 2.6 0.00 0.02 0.02 80 1016.5
20260901220346 72 144 0.9 2.6 0.00 0.02 0.02 79 1016.5
20260901220248 72 144 0.9 2.6 0.00 0.02 0.02 79 1016.5
20260901220149 72 144 0.9 2.6 0.00 0.02 0.02 79 1016.5
20260901220018 72 173 0.9 2.6 0.00 0.02 0.02 79 1016.5
20260901215932 72 173 0.9 2.6 0.00 0.02 0.02 79 1016.5
20260901215742 72 185 0.0 2.6 0.00 0.02 0.02 77 1016.5
20260901215701 72 180 0.0 2.6 0.00 0.02 0.02 78 1016.5
20260901215531 72 180 0.0 2.6 0.00 0.02 0.02 77 1016.6
20260901215430 72 180 0.0 2.6 0.00 0.02 0.02 77 1016.4
20260901215257 72 180 0.9 2.6 0.00 0.02 0.02 77 1016.4
20260901215219 72 180 0.0 2.6 0.00 0.02 0.02 77 1016.4
20260901215049 72 180 0.9 2.6 0.00 0.02 0.02 77 1016.5
20260901214950 73 180 0.9 2.6 0.00 0.02 0.02 77 1016.5
20260901214731 73 151 0.0 1.7 0.00 0.02 0.02 78 1016.4
20260901214652 73 151 0.0 1.7 0.00 0.02 0.02 78 1016.4
20260901214536 73 151 0.0 1.7 0.00 0.02 0.02 77 1016.5
20260901214434 73 151 0.0 1.7 0.00 0.02 0.02 77 1016.4
20260901214335 73 151 0.0 1.7 0.00 0.02 0.02 77 1016.5
20260901214251 73 151 0.0 1.7 0.00 0.02 0.02 77 1016.5
20260901214129 73 151 0.0 1.7 0.00 0.02 0.02 77 1016.4
20260901214031 73 151 0.0 1.7 0.00 0.02 0.02 77 1016.4
20260901213833 73 151 0.0 0.9 0.00 0.02 0.02 76 1016.5
20260901213755 73 151 0.0 1.7 0.00 0.02 0.02 76 1016.5
20260901213640 73 151 0.0 2.6 0.00 0.02 0.02 76 1016.4
20260901213603 73 151 0.0 3.5 0.00 0.02 0.02 76 1016.4
20260901213405 73 151 0.0 3.5 0.00 0.02 0.02 76 1016.4
20260901213330 73 151 0.0 3.5 0.00 0.02 0.02 76 1016.4
20260901213159 73 151 0.0 3.5 0.00 0.02 0.02 76 1016.5
20260901213121 73 151 0.0 3.5 0.00 0.02 0.02 76 1016.5
20260901212925 73 151 1.7 3.5 0.00 0.02 0.02 76 1016.6
20260901212846 73 151 1.7 3.5 0.00 0.02 0.02 76 1016.5
20260901212748 73 209 1.7 3.5 0.00 0.02 0.02 76 1016.5
20260901212647 73 169 1.7 2.6 0.00 0.02 0.02 76 1016.5
20260901212608 73 171 1.7 2.6 0.00 0.02 0.02 75 1016.5
20260901212513 73 193 1.7 2.6 0.00 0.02 0.02 75 1016.6
20260901212434 73 173 1.7 3.5 0.00 0.02 0.02 75 1016.6
20260901212252 73 207 1.7 3.5 0.00 0.02 0.02 76 1016.5
20260901212147 73 173 1.7 3.5 0.00 0.02 0.02 74 1016.5
20260901212020 73 206 0.9 4.3 0.00 0.02 0.02 75 1016.5
20260901211942 73 181 0.9 4.3 0.00 0.02 0.02 74 1016.5
20260901211811 73 190 1.7 6.1 0.00 0.02 0.02 74 1016.6
20260901211727 73 159 1.7 6.1 0.00 0.02 0.02 73 1016.6
20260901211606 73 180 0.9 6.1 0.00 0.02 0.02 72 1016.6
20260901211507 73 155 1.7 6.1 0.00 0.02 0.02 72 1016.6
20260901211330 73 155 2.6 7.0 0.00 0.02 0.02 71 1016.5
20260901211251 73 172 2.6 7.0 0.00 0.02 0.02 71 1016.5
20260901211133 73 171 2.6 7.0 0.00 0.02 0.02 71 1016.5
20260901211055 73 154 3.5 7.0 0.00 0.02 0.02 71 1016.5
20260901211015 73 150 2.6 7.0 0.00 0.02 0.02 72 1016.5
20260901210918 73 144 2.6 7.0 0.00 0.02 0.02 71 1016.5
20260901210845 73 170 2.6 7.0 0.00 0.02 0.02 71 1016.5
20260901210713 73 157 2.6 7.0 0.00 0.02 0.02 71 1016.6
20260901210615 73 146 2.6 7.0 0.00 0.02 0.02 71 1016.6
20260901210438 74 150 2.6 3.5 0.00 0.02 0.02 74 1016.5
20260901210340 74 145 1.7 3.5 0.00 0.02 0.02 73 1016.5
20260901210224 74 130 1.7 3.5 0.00 0.02 0.02 72 1016.5
20260901210147 74 142 0.9 4.3 0.00 0.02 0.02 73 1016.4
20260901205928 74 157 1.7 4.3 0.00 0.02 0.02 77 1016.5
20260901205850 74 157 0.9 4.3 0.00 0.02 0.02 75 1016.5
20260901205754 74 136 0.0 4.3 0.00 0.02 0.02 78 1016.4
20260901205719 74 175 0.0 4.3 0.00 0.02 0.02 77 1016.5
20260901205523 74 175 0.0 4.3 0.00 0.02 0.02 77 1016.4
20260901205425 74 175 0.0 4.3 0.00 0.02 0.02 77 1016.4
20260901205328 74 175 0.9 4.3 0.00 0.02 0.02 77 1016.4
20260901205230 74 175 1.7 4.3 0.00 0.02 0.02 72 1016.4
20260901205152 74 175 1.7 4.3 0.00 0.02 0.02 72 1016.4
20260901205056 74 209 0.9 4.3 0.00 0.02 0.02 74 1016.4
20260901205017 74 220 0.9 3.5 0.00 0.02 0.02 78 1016.4
20260901204847 74 147 0.9 3.5 0.00 0.02 0.02 78 1016.3
20260901204801 74 208 0.9 3.5 0.00 0.02 0.02 77 1016.3
20260901204613 74 206 0.9 2.6 0.00 0.02 0.02 78 1016.3
20260901204535 74 138 0.0 1.7 0.00 0.02 0.02 77 1016.3
20260901204337 74 138 0.0 1.7 0.00 0.02 0.02 77 1016.2
20260901204258 74 138 0.0 1.7 0.00 0.02 0.02 77 1016.2
20260901204141 74 138 0.0 2.6 0.00 0.02 0.02 77 1016.2
20260901204050 75 138 0.0 2.6 0.00 0.02 0.02 78 1016.2
20260901203953 75 138 0.0 2.6 0.00 0.02 0.02 78 1016.2
20260901203833 75 138 0.9 2.6 0.00 0.02 0.02 77 1016.2
20260901203618 75 138 0.9 2.6 0.00 0.02 0.02 76 1016.2
20260901203552 75 138 0.9 2.6 0.00 0.02 0.02 76 1016.2
20260901203436 75 138 1.7 2.6 0.00 0.02 0.02 76 1016.2
20260901203357 75 138 1.7 2.6 0.00 0.02 0.02 76 1016.2
20260901203317 75 138 1.7 2.6 0.00 0.02 0.02 75 1016.1
20260901203219 75 138 0.0 2.6 0.00 0.02 0.02 78 1016.1
20260901203120 75 163 0.0 2.6 0.00 0.02 0.02 78 1016.1
20260901202951 75 163 0.0 2.6 0.00 0.02 0.02 78 1016.2
20260901202845 75 163 0.0 2.6 0.00 0.02 0.02 77 1016.1
20260901202634 75 163 0.9 2.6 0.00 0.02 0.02 76 1016.1
20260901202550 75 163 1.7 2.6 0.00 0.02 0.02 76 1016.1
20260901202419 75 163 0.9 2.6 0.00 0.02 0.02 75 1016.1
20260901202346 75 175 0.9 2.6 0.00 0.02 0.02 75 1016.1
20260901202128 75 175 0.9 2.6 0.00 0.02 0.02 73 1016.2
20260901202050 75 148 0.9 2.6 0.00 0.02 0.02 73 1016.2
20260901201935 75 147 0.9 2.6 0.00 0.02 0.02 75 1016.1
20260901201856 75 148 0.9 2.6 0.00 0.02 0.02 75 1016.1
20260901201818 75 180 0.9 2.6 0.00 0.02 0.02 73 1016.2
20260901201722 75 180 0.9 2.6 0.00 0.02 0.02 72 1016.2
20260901201643 75 180 0.0 2.6 0.00 0.02 0.02 72 1016.1
20260901201513 75 161 0.0 1.7 0.00 0.02 0.02 74 1016.1
20260901201429 75 161 0.0 1.7 0.00 0.02 0.02 75 1016.1
20260901201248 75 161 0.0 1.7 0.00 0.02 0.02 75 1016.1
20260901201153 75 161 0.0 1.7 0.00 0.02 0.02 75 1016.1
20260901200936 75 161 0.0 2.6 0.00 0.02 0.02 75 1016.1
20260901200856 75 161 0.9 2.6 0.00 0.02 0.02 74 1016.0
20260901200740 75 161 0.9 2.6 0.00 0.02 0.02 74 1016.0
20260901200701 75 161 0.9 2.6 0.00 0.02 0.02 74 1016.0
20260901200424 75 161 0.0 4.3 0.00 0.02 0.02 74 1016.0
20260901200346 75 161 0.9 4.3 0.00 0.02 0.02 73 1016.0
20260901200214 75 161 0.9 4.3 0.00 0.02 0.02 72 1016.0
20260901200137 75 153 0.9 4.3 0.00 0.02 0.02 73 1016.0
20260901200059 75 153 0.9 4.3 0.00 0.02 0.02 72 1016.0
20260901200021 75 153 1.7 4.3 0.00 0.02 0.02 72 1016.0
20260901195937 75 186 1.7 4.3 0.00 0.02 0.02 71 1016.0
20260901195755 75 196 2.6 4.3 0.00 0.02 0.02 72 1016.0
20260901195717 75 201 2.6 4.3 0.00 0.02 0.02 70 1015.9
20260901195540 75 171 1.7 3.5 0.00 0.02 0.02 71 1016.0
20260901195440 76 159 1.7 3.5 0.00 0.02 0.02 70 1016.0
20260901195324 76 153 0.9 3.5 0.00 0.02 0.02 67 1016.0
20260901195245 76 153 0.9 3.5 0.00 0.02 0.02 67 1016.0
20260901195119 76 153 0.9 3.5 0.00 0.02 0.02 68 1016.0
20260901195034 76 153 0.9 3.5 0.00 0.02 0.02 68 1016.0
20260901194905 76 153 1.7 3.5 0.00 0.02 0.02 69 1016.0
20260901194827 76 154 0.9 3.5 0.00 0.02 0.02 69 1016.0
20260901194650 76 215 0.9 1.7 0.00 0.02 0.02 68 1016.0
20260901194612 76 215 0.9 1.7 0.00 0.02 0.02 67 1016.0
20260901194453 76 198 0.9 1.7 0.00 0.02 0.02 69 1016.0
20260901194408 76 198 0.9 2.6 0.00 0.02 0.02 69 1016.0
20260901194226 76 198 0.9 3.5 0.00 0.02 0.02 69 1016.0
20260901194127 76 198 0.9 3.5 0.00 0.02 0.02 68 1016.0
20260901193957 76 198 0.0 3.5 0.00 0.02 0.02 68 1016.0
20260901193901 76 198 0.0 3.5 0.00 0.02 0.02 68 1016.0
20260901193730 76 198 0.9 4.3 0.00 0.02 0.02 68 1016.1
20260901193635 76 198 0.9 4.3 0.00 0.02 0.02 68 1016.1
20260901193439 76 198 1.7 4.3 0.00 0.02 0.02 69 1016.1
20260901193359 76 183 1.7 4.3 0.00 0.02 0.02 69 1016.1
20260901193301 76 209 1.7 4.3 0.00 0.02 0.02 67 1016.2
20260901193223 76 209 1.7 4.3 0.00 0.02 0.02 67 1016.2
20260901193054 76 153 2.6 4.3 0.00 0.02 0.02 68 1016.2
20260901192947 76 175 2.6 4.3 0.00 0.02 0.02 68 1016.1
20260901192816 76 176 0.9 4.3 0.00 0.02 0.02 68 1016.1
20260901192737 76 178 1.7 4.3 0.00 0.02 0.02 68 1016.1
20260901192607 77 179 1.7 4.3 0.00 0.02 0.02 69 1016.1
20260901192522 77 223 0.9 4.3 0.00 0.02 0.02 68 1016.1
20260901192337 77 244 0.9 3.5 0.00 0.02 0.02 67 1016.1
20260901192251 77 238 0.0 3.5 0.00 0.02 0.02 70 1016.1
20260901192100 77 211 0.9 3.5 0.00 0.02 0.02 68 1016.1
20260901192020 77 211 1.7 3.5 0.00 0.02 0.02 68 1016.1
20260901191934 77 211 1.7 3.5 0.00 0.02 0.02 68 1016.1
20260901191833 76 238 0.9 2.6 0.00 0.02 0.02 69 1016.1
20260901191733 76 238 0.9 2.6 0.00 0.02 0.02 68 1016.1
20260901191536 76 329 1.7 3.5 0.00 0.02 0.02 70 1016.1
20260901191431 76 331 0.9 3.5 0.00 0.02 0.02 69 1016.1
20260901191332 76 355 0.9 3.5 0.00 0.02 0.02 69 1016.1
20260901191222 76 355 0.0 3.5 0.00 0.02 0.02 67 1016.1
20260901191155 76 355 0.0 3.5 0.00 0.02 0.02 67 1016.1
20260901191108 76 355 0.0 3.5 0.00 0.02 0.02 66 1016.1
20260901191030 76 355 0.0 3.5 0.00 0.02 0.02 67 1016.1
20260901190834 76 355 1.7 3.5 0.00 0.02 0.02 66 1016.1
20260901190735 76 13 1.7 2.6 0.00 0.02 0.02 68 1016.1
20260901190640 76 360 0.9 2.6 0.00 0.02 0.02 69 1016.1
20260901190601 76 233 0.0 2.6 0.00 0.02 0.02 67 1016.1
20260901190409 76 213 0.9 2.6 0.00 0.02 0.02 67 1016.2
20260901190329 76 115 0.9 3.5 0.00 0.02 0.02 68 1016.2
20260901190157 76 107 1.7 3.5 0.00 0.02 0.02 68 1016.1
20260901190119 76 115 1.7 3.5 0.00 0.02 0.02 70 1016.1
20260901190039 76 135 1.7 3.5 0.00 0.02 0.02 68 1016.1
20260901185920 76 126 0.9 3.5 0.00 0.02 0.02 70 1016.1
20260901185821 76 84 0.9 3.5 0.00 0.02 0.02 67 1016.2
20260901185652 76 101 0.9 4.3 0.00 0.02 0.02 69 1016.2
20260901185616 76 153 1.7 4.3 0.00 0.02 0.02 71 1016.2
20260901185426 76 166 2.6 4.3 0.00 0.02 0.02 68 1016.2
20260901185341 76 155 3.5 4.3 0.00 0.02 0.02 69 1016.2
20260901185129 76 171 2.6 4.3 0.00 0.02 0.02 67 1016.2
20260901185048 76 184 2.6 4.3 0.00 0.02 0.02 68 1016.2
20260901184918 76 206 2.6 4.3 0.00 0.02 0.02 69 1016.2
20260901184840 76 193 3.5 4.3 0.00 0.02 0.02 69 1016.2
20260901184623 76 172 2.6 5.2 0.00 0.02 0.02 67 1016.2
20260901184545 76 197 1.7 4.3 0.00 0.02 0.02 69 1016.2
20260901184448 76 149 0.0 3.5 0.00 0.02 0.02 71 1016.2
20260901184347 76 109 0.9 3.5 0.00 0.02 0.02 71 1016.2
20260901184308 76 109 0.9 3.5 0.00 0.02 0.02 71 1016.2
20260901184209 76 109 0.9 3.5 0.00 0.02 0.02 71 1016.2
20260901184131 76 113 1.7 3.5 0.00 0.02 0.02 69 1016.2
20260901184000 76 157 1.7 3.5 0.00 0.02 0.02 70 1016.2
20260901183920 76 146 1.7 4.3 0.00 0.02 0.02 70 1016.2
20260901183800 76 40 0.0 4.3 0.00 0.02 0.02 70 1016.2
20260901183722 76 69 0.0 4.3 0.00 0.02 0.02 69 1016.2
20260901183525 75 69 0.9 4.3 0.00 0.02 0.02 70 1016.2
20260901183446 75 69 0.9 4.3 0.00 0.02 0.02 70 1016.2
20260901183330 75 29 1.7 4.3 0.00 0.02 0.02 69 1016.2
20260901183251 75 29 2.6 4.3 0.00 0.02 0.02 69 1016.3
20260901183211 75 17 2.6 4.3 0.00 0.02 0.02 69 1016.2
20260901183115 75 15 2.6 4.3 0.00 0.02 0.02 68 1016.3
20260901183037 75 342 0.9 3.5 0.00 0.02 0.02 68 1016.3
20260901182906 75 36 0.9 3.5 0.00 0.02 0.02 70 1016.2
20260901182825 75 36 0.9 3.5 0.00 0.02 0.02 68 1016.2
20260901182635 75 14 1.7 3.5 0.00 0.02 0.02 71 1016.3
20260901182550 75 360 1.7 3.5 0.00 0.02 0.02 70 1016.3
20260901182338 75 58 0.9 2.6 0.00 0.02 0.02 70 1016.3
20260901182241 75 140 0.0 2.6 0.00 0.02 0.02 71 1016.2
20260901182112 75 140 0.9 5.2 0.00 0.02 0.02 69 1016.3
20260901182012 75 140 0.9 5.2 0.00 0.02 0.02 69 1016.3
20260901181934 75 101 0.9 5.2 0.00 0.02 0.02 69 1016.3
20260901181815 75 101 0.9 5.2 0.00 0.02 0.02 68 1016.4
20260901181737 75 101 0.9 5.2 0.00 0.02 0.02 69 1016.4
20260901181606 75 111 0.9 5.2 0.00 0.02 0.02 72 1016.4
20260901181527 75 111 1.7 5.2 0.00 0.02 0.02 72 1016.4
20260901181336 75 113 1.7 5.2 0.00 0.02 0.02 70 1016.4
20260901181250 75 105 1.7 4.3 0.00 0.02 0.02 70 1016.4
20260901181120 75 57 2.6 4.3 0.00 0.02 0.02 68 1016.4
20260901181042 75 74 2.6 4.3 0.00 0.02 0.02 69 1016.4
20260901180907 75 85 2.6 3.5 0.00 0.02 0.02 70 1016.4
20260901180828 75 57 2.6 3.5 0.00 0.02 0.02 71 1016.4
20260901180639 75 59 1.7 3.5 0.00 0.02 0.02 71 1016.4
20260901180532 75 96 0.9 3.5 0.00 0.02 0.02 69 1016.5
20260901180453 75 96 0.9 3.5 0.00 0.02 0.02 70 1016.4
20260901180359 75 96 1.7 3.5 0.00 0.02 0.02 69 1016.5
20260901180321 75 96 1.7 3.5 0.00 0.02 0.02 69 1016.5
20260901180125 75 99 1.7 3.5 0.00 0.02 0.02 71 1016.6
20260901180026 75 96 1.7 3.5 0.00 0.02 0.02 69 1016.6
20260901175930 75 107 1.7 2.6 0.00 0.02 0.02 68 1016.6
20260901175852 75 97 1.7 2.6 0.00 0.02 0.02 70 1016.6
20260901175721 75 101 0.9 2.6 0.00 0.02 0.02 71 1016.6
20260901175615 75 94 0.0 1.7 0.00 0.02 0.02 69 1016.6
20260901175444 75 65 0.0 0.0 0.00 0.02 0.02 68 1016.6
20260901175404 75 65 0.0 1.7 0.00 0.02 0.02 70 1016.6
20260901175305 75 65 0.0 1.7 0.00 0.02 0.02 69 1016.6
20260901175210 75 65 0.0 1.7 0.00 0.02 0.02 70 1016.6
20260901175132 74 65 0.0 3.5 0.00 0.02 0.02 70 1016.6
20260901174935 74 65 0.0 3.5 0.00 0.02 0.02 70 1016.6
20260901174836 74 65 0.0 3.5 0.00 0.02 0.02 70 1016.6
20260901174738 74 53 0.0 3.5 0.00 0.02 0.02 69 1016.6
20260901174628 74 53 0.0 3.5 0.00 0.02 0.02 68 1016.6
20260901174532 74 53 0.9 3.5 0.00 0.02 0.02 68 1016.6
20260901174452 74 53 1.7 3.5 0.00 0.02 0.02 69 1016.6
20260901174413 74 53 1.7 3.5 0.00 0.02 0.02 69 1016.6
20260901174315 75 53 1.7 3.5 0.00 0.02 0.02 68 1016.6
20260901174241 75 56 1.7 3.5 0.00 0.02 0.02 69 1016.6
20260901174110 75 360 0.9 3.5 0.00 0.02 0.02 70 1016.6
20260901174024 75 348 1.7 3.5 0.00 0.02 0.02 69 1016.6
20260901173834 75 338 1.7 3.5 0.00 0.02 0.02 71 1016.6
20260901173745 75 350 1.7 3.5 0.00 0.02 0.02 70 1016.6
20260901173629 74 355 1.7 4.3 0.00 0.02 0.02 71 1016.6
20260901173549 74 355 0.9 4.3 0.00 0.02 0.02 71 1016.6
20260901173510 74 332 0.9 4.3 0.00 0.02 0.02 69 1016.6
20260901173414 74 332 1.7 4.3 0.00 0.02 0.02 69 1016.6
20260901173337 74 332 1.7 4.3 0.00 0.02 0.02 69 1016.6
20260901173206 74 324 1.7 4.3 0.00 0.02 0.02 70 1016.6
20260901173119 74 339 1.7 4.3 0.00 0.02 0.02 71 1016.6
20260901172933 74 12 2.6 4.3 0.00 0.02 0.02 68 1016.6
20260901172849 74 344 3.5 4.3 0.00 0.02 0.02 70 1016.6
20260901172636 74 339 2.6 3.5 0.00 0.02 0.02 70 1016.6
20260901172551 74 346 1.7 3.5 0.00 0.02 0.02 70 1016.6
20260901172421 74 328 0.0 1.7 0.00 0.02 0.02 70 1016.6
20260901172343 74 165 0.9 1.7 0.00 0.02 0.02 70 1016.6
20260901172125 74 165 0.9 1.7 0.00 0.02 0.02 70 1016.6
20260901172045 74 130 0.9 1.7 0.00 0.02 0.02 70 1016.5
20260901171930 74 130 0.9 1.7 0.00 0.02 0.02 69 1016.5
20260901171855 74 130 0.9 1.7 0.00 0.02 0.02 71 1016.5
20260901171725 74 128 0.9 1.7 0.00 0.02 0.02 71 1016.6
20260901171619 74 128 0.9 1.7 0.00 0.02 0.02 71 1016.6
20260901171429 74 128 0.9 1.7 0.00 0.02 0.02 72 1016.5
20260901171345 74 128 0.9 1.7 0.00 0.02 0.02 71 1016.6
20260901171133 73 128 0.0 1.7 0.00 0.02 0.02 72 1016.5
20260901171027 73 128 0.0 1.7 0.00 0.02 0.02 72 1016.6
20260901170959 73 128 0.0 2.6 0.00 0.02 0.02 72 1016.5
20260901170827 73 128 0.0 2.6 0.00 0.02 0.02 75 1016.5
20260901170741 73 128 0.0 3.5 0.00 0.02 0.02 74 1016.5
20260901170549 73 128 0.9 3.5 0.00 0.02 0.02 75 1016.6
20260901170511 73 128 0.9 3.5 0.00 0.02 0.02 74 1016.6
20260901170412 73 161 0.9 3.5 0.00 0.02 0.02 71 1016.6
20260901170313 73 148 0.9 3.5 0.00 0.02 0.02 72 1016.6
20260901170214 73 178 1.7 3.5 0.00 0.02 0.02 71 1016.6
20260901170115 73 188 1.7 3.5 0.00 0.02 0.02 72 1016.7
20260901170020 73 190 2.6 3.5 0.00 0.02 0.02 72 1016.7
20260901165941 73 188 2.6 3.5 0.00 0.02 0.02 71 1016.7
20260901165811 73 194 2.6 3.5 0.00 0.02 0.02 72 1016.7
20260901165725 73 192 2.6 3.5 0.00 0.02 0.02 74 1016.7
20260901165554 73 165 1.7 3.5 0.00 0.02 0.02 73 1016.7
20260901165520 73 173 2.6 3.5 0.00 0.02 0.02 73 1016.7
20260901165323 73 174 1.7 4.3 0.00 0.02 0.02 75 1016.7
20260901165243 73 194 1.7 4.3 0.00 0.02 0.02 75 1016.7
20260901165127 72 149 0.9 4.3 0.00 0.02 0.02 73 1016.7
20260901165048 72 153 0.9 4.3 0.00 0.02 0.02 73 1016.7
20260901165009 72 159 1.7 4.3 0.00 0.02 0.02 72 1016.7
20260901164851 72 159 2.6 4.3 0.00 0.02 0.02 73 1016.7
20260901164811 72 167 2.6 4.3 0.00 0.02 0.02 72 1016.7
20260901164732 73 148 3.5 4.3 0.00 0.02 0.02 72 1016.7
20260901164613 73 159 2.6 5.2 0.00 0.02 0.02 73 1016.7
20260901164536 73 159 1.7 4.3 0.00 0.02 0.02 73 1016.7
20260901164347 72 248 1.7 2.6 0.00 0.02 0.02 73 1016.7
20260901164242 72 239 1.7 2.6 0.00 0.02 0.02 74 1016.7
20260901164110 72 207 0.9 2.6 0.00 0.02 0.02 74 1016.8
20260901164033 72 223 0.9 2.6 0.00 0.02 0.02 74 1016.8
20260901163854 72 194 0.0 2.6 0.00 0.02 0.02 73 1016.7
20260901163734 72 200 0.0 2.6 0.00 0.02 0.02 72 1016.7
20260901163656 72 200 0.9 3.5 0.00 0.02 0.02 73 1016.8
20260901163610 72 200 0.9 4.3 0.00 0.02 0.02 72 1016.8
20260901163418 72 209 0.9 4.3 0.00 0.02 0.02 72 1016.8
20260901163318 72 209 0.9 4.3 0.00 0.02 0.02 73 1016.8
20260901163201 72 209 0.9 4.3 0.00 0.02 0.02 73 1016.8
20260901163124 72 201 0.9 4.3 0.00 0.02 0.02 74 1016.8
20260901162957 72 196 1.7 4.3 0.00 0.02 0.02 73 1016.9
20260901162851 72 207 2.6 4.3 0.00 0.02 0.02 74 1016.9
20260901162719 72 205 2.6 4.3 0.00 0.02 0.02 72 1016.9
20260901162642 72 230 2.6 3.5 0.00 0.02 0.02 73 1016.9
20260901162512 72 221 1.7 3.5 0.00 0.02 0.02 74 1016.9
20260901162426 72 248 1.7 3.5 0.00 0.02 0.02 73 1016.9
20260901162257 72 232 2.6 3.5 0.00 0.02 0.02 73 1016.9
20260901162218 72 193 2.6 3.5 0.00 0.02 0.02 73 1016.9
20260901162042 72 167 1.7 4.3 0.00 0.02 0.02 72 1016.8
20260901161943 72 188 1.7 4.3 0.00 0.02 0.02 72 1016.9
20260901161846 72 172 0.9 4.3 0.00 0.02 0.02 73 1016.8
20260901161808 72 234 0.9 4.3 0.00 0.02 0.02 72 1016.9
20260901161620 72 234 0.9 4.3 0.00 0.02 0.02 72 1016.8
20260901161536 72 242 0.9 4.3 0.00 0.02 0.02 71 1016.8
20260901161404 72 200 1.7 4.3 0.00 0.02 0.02 72 1016.9
20260901161326 72 206 2.6 4.3 0.00 0.02 0.02 71 1016.9
20260901161129 72 237 0.9 3.5 0.00 0.02 0.02 72 1016.9
20260901161049 72 237 0.9 3.5 0.00 0.02 0.02 72 1016.9
20260901160944 72 237 0.9 3.5 0.00 0.02 0.02 73 1016.9
20260901160854 72 236 0.9 3.5 0.00 0.02 0.02 71 1016.9
20260901160816 72 236 0.9 3.5 0.00 0.02 0.02 71 1016.9
20260901160721 72 237 0.9 3.5 0.00 0.02 0.02 71 1016.9
20260901160642 72 246 0.9 3.5 0.00 0.02 0.02 71 1016.9
20260901160516 72 267 0.9 3.5 0.00 0.02 0.02 70 1016.9
20260901160430 72 267 1.7 3.5 0.00 0.02 0.02 69 1016.9
20260901160259 73 273 0.9 3.5 0.00 0.02 0.02 70 1016.8
20260901160220 73 273 0.9 3.5 0.00 0.02 0.02 70 1016.8
20260901160042 73 307 1.7 3.5 0.00 0.02 0.02 71 1016.8
20260901155943 73 163 1.7 3.5 0.00 0.02 0.02 70 1016.8
20260901155827 73 206 1.7 3.5 0.00 0.02 0.02 70 1016.9
20260901155747 73 225 1.7 3.5 0.00 0.02 0.02 70 1016.8
20260901155709 73 223 0.9 3.5 0.00 0.02 0.02 70 1016.9
20260901155552 73 223 0.9 3.5 0.00 0.02 0.02 69 1016.8
20260901155515 73 223 1.7 3.5 0.00 0.02 0.02 69 1016.8
20260901155349 73 252 1.7 3.5 0.00 0.02 0.02 70 1016.8
20260901155242 73 242 0.9 3.5 0.00 0.02 0.02 70 1016.8
20260901155112 73 92 0.0 2.6 0.00 0.02 0.02 74 1016.7
20260901155034 73 92 0.9 2.6 0.00 0.02 0.02 71 1016.7
20260901154836 72 61 0.9 3.5 0.00 0.02 0.02 70 1016.8
20260901154757 72 55 0.0 3.5 0.00 0.02 0.02 70 1016.8
20260901154638 72 355 0.9 3.5 0.00 0.02 0.02 71 1016.8
20260901154601 72 355 0.9 3.5 0.00 0.02 0.02 70 1016.7
20260901154340 72 355 1.7 3.5 0.00 0.02 0.02 71 1016.8
20260901154244 72 355 1.7 3.5 0.00 0.02 0.02 73 1016.8
20260901154128 72 336 2.6 3.5 0.00 0.02 0.02 73 1016.8
20260901154049 72 338 2.6 3.5 0.00 0.02 0.02 73 1016.9
20260901153954 72 355 0.9 2.6 0.00 0.02 0.02 72 1016.9
20260901153904 72 90 0.9 2.6 0.00 0.02 0.02 71 1016.9
20260901153712 72 106 0.9 2.6 0.00 0.02 0.02 72 1016.9
20260901153628 72 106 0.9 2.6 0.00 0.02 0.02 72 1016.9
20260901153437 72 106 0.9 2.6 0.00 0.02 0.02 70 1016.9
20260901153331 72 106 1.7 2.6 0.00 0.02 0.02 70 1016.9
20260901153251 72 106 1.7 2.6 0.00 0.02 0.02 70 1016.9
20260901153137 72 134 0.9 2.6 0.00 0.02 0.02 72 1016.9
20260901153058 72 144 1.7 2.6 0.00 0.02 0.02 71 1017.0
20260901153001 72 150 1.7 2.6 0.00 0.02 0.02 72 1016.9
20260901152922 71 155 1.7 3.5 0.00 0.02 0.02 73 1016.9
20260901152724 71 205 0.0 0.0 0.00 0.02 0.02 71 1016.8
20260901152625 71 205 0.0 0.0 0.00 0.02 0.02 71 1016.8
20260901152528 71 205 0.0 0.0 0.00 0.02 0.02 71 1016.8
20260901152429 71 205 0.0 0.0 0.00 0.02 0.02 70 1016.8
20260901152351 71 205 0.0 0.0 0.00 0.02 0.02 70 1016.9
20260901152258 71 205 0.0 0.0 0.00 0.02 0.02 71 1016.8
20260901152140 71 205 0.0 0.0 0.00 0.02 0.02 70 1016.9
20260901152042 71 202 0.0 0.0 0.00 0.02 0.02 73 1016.9
20260901151944 71 202 0.0 0.0 0.00 0.02 0.02 74 1016.9
20260901151825 71 350 0.0 0.0 0.00 0.02 0.02 74 1017.0
20260901151746 71 350 0.0 0.0 0.00 0.02 0.02 74 1017.0
20260901151616 70 55 0.0 0.0 0.00 0.02 0.02 75 1017.1
20260901151530 70 292 0.0 0.0 0.00 0.02 0.02 75 1017.1
20260901151340 70 255 0.0 0.0 0.00 0.02 0.02 74 1017.0
20260901151238 70 190 0.0 3.5 0.00 0.02 0.02 75 1017.0
20260901151123 70 188 0.0 3.5 0.00 0.02 0.02 76 1016.9
20260901151025 70 165 0.0 3.5 0.00 0.02 0.02 75 1016.8
20260901150947 70 165 0.0 4.3 0.00 0.02 0.02 75 1016.7
20260901150849 70 169 0.0 4.3 0.00 0.02 0.02 77 1016.7
20260901150748 70 169 0.0 4.3 0.00 0.02 0.02 76 1016.7
20260901150709 70 165 0.0 4.3 0.00 0.02 0.02 78 1016.6
20260901150612 70 171 0.0 4.3 0.00 0.02 0.02 78 1016.6
20260901150533 70 143 0.9 4.3 0.00 0.02 0.02 77 1016.6
20260901150403 70 195 1.7 4.3 0.00 0.02 0.02 77 1016.8
20260901150257 70 194 2.6 4.3 0.00 0.02 0.02 77 1016.8
20260901150130 70 192 2.6 5.2 0.00 0.02 0.02 78 1016.9
20260901150032 70 189 2.6 5.2 0.00 0.02 0.02 77 1016.9
20260901145834 70 167 1.7 3.5 0.00 0.02 0.02 79 1016.8
20260901145755 70 134 1.7 3.5 0.00 0.02 0.02 79 1016.9
20260901145637 70 185 0.9 3.5 0.00 0.02 0.02 78 1016.9
20260901145559 70 175 0.0 3.5 0.00 0.02 0.02 78 1016.9
20260901145408 70 175 1.7 3.5 0.00 0.02 0.02 77 1016.9
20260901145323 70 175 1.7 3.5 0.00 0.02 0.02 78 1016.9
20260901145134 70 165 1.7 2.6 0.00 0.02 0.02 79 1016.8
20260901145050 70 192 0.9 2.6 0.00 0.02 0.02 79 1016.8
20260901144923 69 119 1.7 2.6 0.00 0.02 0.02 79 1016.7
20260901144823 69 131 0.9 2.6 0.00 0.02 0.02 80 1016.7
20260901144704 69 134 0.0 0.0 0.00 0.02 0.02 80 1016.7
20260901144626 69 138 0.0 0.0 0.00 0.02 0.02 79 1016.7
20260901144428 69 150 0.0 0.9 0.00 0.02 0.02 78 1016.8
20260901144330 69 143 0.0 2.6 0.00 0.02 0.02 79 1016.8
20260901144224 69 170 0.0 2.6 0.00 0.02 0.02 79 1016.8
20260901144144 69 170 0.0 2.6 0.00 0.02 0.02 80 1016.8
20260901144107 69 165 0.0 2.6 0.00 0.02 0.02 80 1016.9
20260901143948 69 140 0.0 2.6 0.00 0.02 0.02 79 1016.9
20260901143913 69 140 0.0 2.6 0.00 0.02 0.02 80 1016.8
20260901143650 69 140 0.9 2.6 0.00 0.02 0.02 80 1016.8
20260901143544 69 140 1.7 2.6 0.00 0.02 0.02 81 1016.9
20260901143413 69 143 1.7 2.6 0.00 0.02 0.02 82 1016.9
20260901143336 69 153 1.7 3.5 0.00 0.02 0.02 80 1016.9
20260901143137 69 164 1.7 3.5 0.00 0.02 0.02 80 1016.9
20260901143058 69 163 1.7 2.6 0.00 0.02 0.02 80 1016.9
20260901142923 69 153 0.9 2.6 0.00 0.02 0.02 81 1017.0
20260901142838 69 180 0.9 2.6 0.00 0.02 0.02 82 1017.0
20260901142707 68 155 0.9 2.6 0.00 0.02 0.02 83 1017.0
20260901142633 68 148 0.0 2.6 0.00 0.02 0.02 83 1017.0
20260901142503 68 148 0.0 2.6 0.00 0.02 0.02 82 1017.0
20260901142336 68 148 0.0 2.6 0.00 0.02 0.02 81 1017.1
20260901142259 68 148 0.9 2.6 0.00 0.02 0.02 81 1017.0
20260901142201 68 148 0.9 2.6 0.00 0.02 0.02 81 1017.1
20260901142041 68 148 1.7 2.6 0.00 0.02 0.02 82 1017.0
20260901141945 68 130 1.7 2.6 0.00 0.02 0.02 83 1017.0
20260901141905 68 132 1.7 2.6 0.00 0.02 0.02 81 1017.0
20260901141736 68 142 0.9 2.6 0.00 0.02 0.02 85 1017.0
20260901141630 67 184 0.9 2.6 0.00 0.02 0.02 83 1017.0
20260901141459 67 259 1.7 2.6 0.00 0.02 0.02 84 1017.0
20260901141425 67 257 1.7 2.6 0.00 0.02 0.02 84 1017.0
20260901141226 67 319 0.0 0.9 0.00 0.02 0.02 84 1017.1
20260901141146 67 319 0.0 0.9 0.00 0.02 0.02 86 1017.1
20260901141031 67 329 0.0 0.9 0.00 0.02 0.02 86 1017.1
20260901140953 66 343 0.0 0.9 0.00 0.02 0.02 87 1017.1
20260901140812 66 328 0.0 0.9 0.00 0.02 0.02 88 1017.0
20260901140726 66 292 0.0 0.9 0.00 0.02 0.02 91 1017.0
20260901140538 65 15 0.0 0.0 0.00 0.02 0.02 90 1017.0
20260901140451 65 333 0.0 0.0 0.00 0.02 0.02 90 1017.0
20260901140321 65 317 0.0 0.0 0.00 0.02 0.02 89 1017.0
20260901140246 65 329 0.0 0.0 0.00 0.02 0.02 89 1017.0
20260901140108 65 338 0.0 0.0 0.00 0.02 0.02 90 1017.0
20260901140031 65 325 0.0 0.0 0.00 0.02 0.02 90 1017.0
20260901135859 65 336 0.0 0.0 0.00 0.02 0.02 90 1016.8
20260901135821 65 330 0.0 0.0 0.00 0.02 0.02 90 1016.8
20260901135736 64 332 0.0 0.0 0.00 0.02 0.02 90 1016.8
20260901135604 64 335 0.0 0.0 0.00 0.02 0.02 89 1016.7
20260901135527 64 282 0.0 0.0 0.00 0.02 0.02 89 1016.7
20260901135328 64 282 0.0 0.9 0.00 0.02 0.02 89 1016.7
20260901135250 64 282 0.0 0.9 0.00 0.02 0.02 90 1016.6
20260901135132 64 282 0.0 0.9 0.00 0.02 0.02 90 1016.6
20260901135059 64 282 0.0 0.9 0.00 0.02 0.02 91 1016.6
20260901134840 64 282 0.0 1.7 0.00 0.02 0.02 89 1016.6
20260901134802 64 282 0.0 1.7 0.00 0.02 0.02 89 1016.6
20260901134704 64 323 0.0 1.7 0.00 0.02 0.02 90 1016.6
20260901134627 64 342 0.0 2.6 0.00 0.02 0.02 90 1016.6
20260901134428 64 347 0.0 3.5 0.00 0.02 0.02 91 1016.7
20260901134330 64 347 0.0 3.5 0.00 0.02 0.02 91 1016.8
20260901134233 64 347 0.0 3.5 0.00 0.02 0.02 90 1016.8
20260901134133 64 347 0.0 3.5 0.00 0.02 0.02 90 1016.9
20260901134059 64 347 0.0 3.5 0.00 0.02 0.02 88 1016.9
20260901133942 64 347 0.9 3.5 0.00 0.02 0.02 90 1016.9
20260901133842 63 347 0.9 3.5 0.00 0.02 0.02 91 1016.9
20260901133755 63 345 2.6 3.5 0.00 0.02 0.02 91 1017.0
20260901133716 63 344 2.6 3.5 0.00 0.02 0.02 92 1017.0
20260901133454 63 331 2.6 3.5 0.00 0.02 0.02 92 1017.1
20260901133420 63 339 1.7 3.5 0.00 0.02 0.02 92 1017.1
20260901133228 63 321 1.7 2.6 0.00 0.02 0.02 91 1017.1
20260901133143 63 321 1.7 2.6 0.00 0.02 0.02 90 1017.1
20260901133013 63 355 0.9 1.7 0.00 0.02 0.02 92 1017.2
20260901132936 63 355 0.9 1.7 0.00 0.02 0.02 92 1017.2
20260901132723 63 187 0.0 1.7 0.00 0.02 0.02 91 1017.2
20260901132645 63 187 0.0 1.7 0.00 0.02 0.02 91 1017.2
20260901132549 63 187 0.0 1.7 0.00 0.02 0.02 91 1017.2
20260901132510 63 187 0.0 2.6 0.00 0.02 0.02 91 1017.2
20260901132340 62 187 0.0 2.6 0.00 0.02 0.02 92 1017.2
20260901132233 62 187 0.9 2.6 0.00 0.02 0.02 92 1017.2
20260901132042 62 187 0.9 2.6 0.00 0.02 0.02 92 1017.1
20260901131936 62 187 0.9 2.6 0.00 0.02 0.02 92 1017.1
20260901131824 62 187 0.9 2.6 0.00 0.02 0.02 92 1017.1
20260901131745 62 187 1.7 2.6 0.00 0.02 0.02 92 1017.2
20260901131706 62 187 1.7 2.6 0.00 0.02 0.02 92 1017.2
20260901131609 62 200 1.7 2.6 0.00 0.02 0.02 92 1017.2
20260901131531 62 200 1.7 2.6 0.00 0.02 0.02 92 1017.2
20260901131334 62 194 0.9 2.6 0.00 0.02 0.02 92 1017.2
20260901131236 62 194 0.9 2.6 0.00 0.02 0.02 92 1017.2
20260901131137 62 194 0.9 2.6 0.00 0.02 0.02 92 1017.2
20260901131058 62 194 0.9 2.6 0.00 0.02 0.02 92 1017.2
20260901131019 62 194 0.0 2.6 0.00 0.02 0.02 92 1017.2
20260901130919 62 220 0.0 0.9 0.00 0.02 0.02 92 1017.3
20260901130838 62 274 0.0 0.9 0.00 0.02 0.02 92 1017.3
20260901130627 62 274 0.0 1.7 0.00 0.02 0.02 94 1017.4
20260901130543 62 274 0.0 1.7 0.00 0.02 0.02 94 1017.5
20260901130413 62 274 0.0 1.7 0.00 0.02 0.02 94 1017.5
20260901130335 62 274 0.0 1.7 0.00 0.02 0.02 94 1017.5
20260901130140 62 274 0.0 2.6 0.00 0.02 0.02 94 1017.5
20260901130100 62 274 0.0 2.6 0.00 0.02 0.02 94 1017.5
20260901130003 62 274 0.0 2.6 0.00 0.02 0.02 94 1017.5
20260901125925 62 274 0.0 2.6 0.00 0.02 0.02 94 1017.5
20260901125745 62 274 0.0 3.5 0.00 0.02 0.02 95 1017.5
20260901125645 62 179 0.0 3.5 0.00 0.02 0.02 95 1017.4
20260901125552 62 179 0.9 3.5 0.00 0.02 0.02 95 1017.4
20260901125515 62 179 0.9 3.5 0.00 0.02 0.02 95 1017.3
20260901125345 61 179 1.7 3.5 0.00 0.02 0.02 94 1017.3
20260901125301 61 179 1.7 3.5 0.00 0.02 0.02 94 1017.3
20260901125129 61 188 1.7 3.5 0.00 0.02 0.02 94 1017.2
20260901125029 61 199 1.7 3.5 0.00 0.02 0.02 94 1017.2
20260901124853 61 199 1.7 4.3 0.00 0.02 0.02 94 1017.3
20260901124815 61 211 1.7 4.3 0.00 0.02 0.02 94 1017.3
20260901124627 61 321 0.9 4.3 0.00 0.02 0.02 93 1017.3
20260901124541 61 321 0.9 4.3 0.00 0.02 0.02 93 1017.3
20260901124411 61 338 0.9 4.3 0.00 0.02 0.02 94 1017.4
20260901124331 61 338 0.9 4.3 0.00 0.02 0.02 94 1017.4
20260901124138 61 345 2.6 4.3 0.00 0.02 0.02 94 1017.3
20260901124058 61 360 2.6 4.3 0.00 0.02 0.02 94 1017.3
20260901124003 61 333 1.7 3.5 0.00 0.02 0.02 95 1017.3
20260901123924 61 340 1.7 2.6 0.00 0.02 0.02 95 1017.3
20260901123753 61 41 0.9 2.6 0.00 0.02 0.02 95 1017.2
20260901123647 61 117 0.0 0.0 0.00 0.02 0.02 95 1017.2
20260901123437 61 155 0.0 0.0 0.00 0.02 0.02 95 1017.2
20260901123351 61 155 0.0 0.0 0.00 0.02 0.02 95 1017.2
20260901123221 61 155 0.0 0.0 0.00 0.02 0.02 95 1017.3
20260901123142 61 155 0.0 0.0 0.00 0.02 0.02 95 1017.3
20260901123012 61 167 0.0 0.0 0.00 0.02 0.02 95 1017.4
20260901122932 61 167 0.0 0.0 0.00 0.02 0.02 95 1017.4
20260901122740 61 167 0.0 0.0 0.00 0.02 0.02 95 1017.5
20260901122644 61 167 0.0 0.0 0.00 0.02 0.02 95 1017.6
20260901122545 61 167 0.0 0.0 0.00 0.02 0.02 95 1017.6
20260901122326 61 167 0.0 0.0 0.00 0.02 0.02 95 1017.7
20260901122228 61 167 0.0 0.0 0.00 0.02 0.02 95 1017.8
20260901122132 61 167 0.0 0.0 0.00 0.02 0.02 95 1017.9
20260901122032 61 167 0.0 0.0 0.00 0.02 0.02 95 1017.9
20260901121947 61 167 0.0 0.0 0.00 0.02 0.02 95 1017.9
20260901121901 61 167 0.0 0.0 0.00 0.02 0.02 95 1017.9
20260901121821 61 167 0.0 0.0 0.00 0.02 0.02 95 1017.9
20260901121644 61 167 0.0 0.0 0.00 0.02 0.02 95 1017.9
20260901121543 61 167 0.0 0.0 0.00 0.02 0.02 95 1017.9
20260901121427 61 167 0.0 0.0 0.00 0.02 0.02 95 1017.9
20260901121348 61 167 0.0 0.0 0.00 0.02 0.02 95 1017.9
20260901121311 61 167 0.0 0.0 0.00 0.02 0.02 95 1017.8
20260901121213 61 167 0.0 0.0 0.00 0.02 0.02 95 1017.8
20260901121136 61 167 0.0 0.0 0.00 0.02 0.02 95 1017.8
20260901121005 61 167 0.0 0.0 0.00 0.02 0.02 95 1017.8
20260901120919 61 167 0.0 0.0 0.00 0.02 0.02 95 1017.8
20260901120732 61 167 0.0 0.0 0.00 0.02 0.02 95 1017.8
20260901120646 61 167 0.0 0.0 0.00 0.02 0.02 95 1017.9
20260901120514 61 167 0.0 0.0 0.00 0.02 0.02 95 1017.9
20260901120416 61 167 0.0 0.0 0.00 0.02 0.02 95 1017.8
20260901120319 61 167 0.0 0.0 0.00 0.02 0.02 95 1017.9
20260901120241 61 167 0.0 0.0 0.00 0.02 0.02 95 1017.8
20260901120048 61 167 0.0 0.0 0.00 0.02 0.02 95 1017.7
20260901115948 61 167 0.0 0.0 0.00 0.02 0.02 95 1017.8
20260901115830 61 167 0.0 0.0 0.00 0.02 0.02 95 1017.7
20260901115751 61 167 0.0 0.0 0.00 0.02 0.02 95 1017.7
20260901115711 61 167 0.0 0.0 0.00 0.02 0.02 95 1017.8
20260901115615 61 167 0.0 0.0 0.00 0.02 0.02 95 1017.7
20260901115540 61 167 0.0 0.0 0.00 0.02 0.02 95 1017.7
20260901115408 61 167 0.0 0.0 0.00 0.02 0.02 95 1017.7
20260901115324 61 167 0.0 0.0 0.00 0.02 0.02 95 1017.7
20260901115152 61 167 0.0 0.0 0.00 0.02 0.02 95 1017.8
20260901115114 61 167 0.0 0.0 0.00 0.02 0.02 95 1017.7
20260901114946 60 167 0.0 0.0 0.00 0.02 0.02 95 1017.7
20260901114840 60 167 0.0 0.0 0.00 0.02 0.02 95 1017.7
20260901114802 60 167 0.0 0.0 0.00 0.02 0.02 95 1017.7
20260901114705 60 167 0.0 0.0 0.00 0.02 0.02 95 1017.7
20260901114628 60 167 0.0 0.0 0.00 0.02 0.02 95 1017.7
20260901114430 60 167 0.0 0.0 0.00 0.02 0.02 95 1017.6
20260901114335 60 167 0.0 0.0 0.00 0.02 0.02 95 1017.6
20260901114238 60 167 0.0 0.0 0.00 0.02 0.02 95 1017.6
20260901114138 60 167 0.0 0.0 0.00 0.02 0.02 95 1017.6
20260901114008 60 167 0.0 0.0 0.00 0.02 0.02 95 1017.5
20260901113923 60 167 0.0 0.0 0.00 0.02 0.02 95 1017.5
20260901113733 60 167 0.0 0.0 0.00 0.02 0.02 95 1017.5
20260901113650 60 167 0.0 0.0 0.00 0.02 0.02 95 1017.5
20260901113518 60 167 0.0 0.0 0.00 0.02 0.02 95 1017.5
20260901113440 60 167 0.0 0.0 0.00 0.02 0.02 95 1017.4
20260901113249 60 167 0.0 0.0 0.00 0.02 0.02 95 1017.4
20260901113126 60 167 0.0 0.0 0.00 0.02 0.02 95 1017.4
20260901113047 60 167 0.0 0.0 0.00 0.02 0.02 95 1017.4
20260901112949 60 167 0.0 0.0 0.01 0.02 0.02 95 1017.4
20260901112911 60 167 0.0 0.0 0.01 0.02 0.02 95 1017.4
20260901112719 60 167 0.0 0.0 0.01 0.02 0.02 95 1017.4
20260901112632 60 167 0.0 0.0 0.01 0.02 0.02 95 1017.4
20260901112411 60 167 0.0 0.0 0.01 0.02 0.02 94 1017.4
20260901112334 60 167 0.0 0.0 0.01 0.02 0.02 94 1017.4
20260901112137 60 167 0.0 0.0 0.01 0.02 0.02 94 1017.4
20260901112058 60 167 0.0 0.0 0.01 0.02 0.02 94 1017.4
20260901112002 60 167 0.0 0.0 0.01 0.02 0.02 94 1017.3
20260901111923 60 167 0.0 0.0 0.01 0.02 0.02 94 1017.3
20260901111737 60 167 0.0 0.0 0.01 0.02 0.02 94 1017.2
20260901111630 60 167 0.0 0.0 0.01 0.02 0.02 94 1017.3
20260901111551 60 167 0.0 0.0 0.01 0.02 0.02 94 1017.3
20260901111435 60 167 0.0 0.0 0.01 0.02 0.02 94 1017.2
20260901111358 60 167 0.0 0.0 0.02 0.02 0.02 94 1017.2
20260901111140 60 167 0.0 0.0 0.02 0.02 0.02 94 1017.2
20260901111100 60 167 0.0 0.0 0.02 0.02 0.02 94 1017.2
20260901111003 60 167 0.0 0.0 0.02 0.02 0.02 95 1017.3
20260901110925 60 167 0.0 0.0 0.02 0.02 0.02 95 1017.3
20260901110733 60 246 0.0 0.0 0.02 0.02 0.02 95 1017.3
20260901110633 60 246 0.0 0.0 0.02 0.02 0.02 95 1017.3
20260901110536 60 246 0.0 0.0 0.02 0.02 0.02 95 1017.2
20260901110436 60 246 0.0 0.0 0.02 0.02 0.02 95 1017.2
20260901110305 60 246 0.0 0.0 0.02 0.02 0.02 95 1017.2
20260901110230 60 246 0.0 0.0 0.02 0.02 0.02 95 1017.2
20260901110100 60 246 0.0 0.0 0.02 0.02 0.02 95 1017.2
20260901110023 60 246 0.0 0.0 0.02 0.02 0.02 95 1017.2
20260901105826 60 246 0.0 0.0 0.02 0.03 0.02 95 1017.2
20260901105731 60 246 0.0 0.0 0.02 0.03 0.02 95 1017.2
20260901105634 60 246 0.0 0.0 0.02 0.03 0.02 95 1017.2
20260901105555 60 246 0.0 0.0 0.02 0.03 0.02 95 1017.2
20260901105517 60 246 0.0 0.0 0.02 0.03 0.02 95 1017.3
20260901105421 60 284 0.0 0.0 0.02 0.03 0.02 95 1017.3
20260901105342 60 284 0.0 0.0 0.02 0.03 0.02 95 1017.3
20260901105211 60 284 0.0 0.0 0.02 0.03 0.02 95 1017.3
20260901105128 60 284 0.0 0.0 0.02 0.03 0.02 95 1017.3
20260901104957 60 284 0.0 0.0 0.02 0.03 0.02 95 1017.3
20260901104919 60 284 0.0 0.0 0.02 0.03 0.02 95 1017.3
20260901104751 60 284 0.0 0.0 0.02 0.03 0.02 95 1017.3
20260901104715 60 284 0.0 0.0 0.02 0.03 0.02 95 1017.3
20260901104530 60 284 0.0 0.0 0.02 0.03 0.02 95 1017.4
20260901104446 60 284 0.0 0.0 0.02 0.03 0.02 95 1017.4
20260901104315 60 284 0.0 0.0 0.02 0.03 0.02 95 1017.4
20260901104225 60 284 0.0 0.0 0.02 0.03 0.02 95 1017.3
20260901104109 60 284 0.0 0.0 0.02 0.03 0.02 95 1017.3
20260901104030 60 284 0.0 0.0 0.02 0.03 0.02 95 1017.3
20260901103818 60 284 0.0 0.0 0.02 0.03 0.02 95 1017.3
20260901103733 60 284 0.0 0.0 0.02 0.03 0.02 95 1017.3
20260901103602 60 284 0.0 0.0 0.02 0.03 0.02 95 1017.2
20260901103525 60 284 0.0 0.0 0.02 0.03 0.02 95 1017.2
20260901103328 60 284 0.0 0.0 0.02 0.03 0.02 95 1017.2
20260901103232 60 284 0.0 0.0 0.02 0.03 0.02 95 1017.1
20260901103135 60 284 0.0 0.0 0.02 0.03 0.02 95 1017.1
20260901103055 60 284 0.0 0.0 0.02 0.03 0.02 95 1017.1
20260901103016 60 284 0.0 0.0 0.01 0.02 0.01 95 1017.1
20260901102919 60 284 0.0 0.0 0.01 0.02 0.01 95 1017.1
20260901102821 60 284 0.0 0.0 0.01 0.02 0.01 95 1017.1
20260901102638 60 284 0.0 0.0 0.01 0.02 0.01 95 1017.1
20260901102532 60 284 0.0 0.0 0.01 0.02 0.01 95 1017.1
20260901102343 60 284 0.0 0.0 0.01 0.02 0.01 95 1017.0
20260901102238 60 284 0.0 0.0 0.01 0.02 0.01 95 1017.0
20260901102125 60 284 0.0 0.0 0.01 0.02 0.01 95 1017.0
20260901102046 60 284 0.0 0.0 0.01 0.02 0.01 95 1016.9
20260901102008 60 284 0.0 0.0 0.01 0.02 0.01 95 1016.9
20260901101911 60 284 0.0 0.0 0.01 0.02 0.01 95 1016.9
20260901101833 60 284 0.0 0.0 0.01 0.02 0.01 95 1016.9
20260901101637 60 284 0.0 0.0 0.01 0.02 0.01 95 1016.9
20260901101538 60 284 0.0 0.0 0.01 0.02 0.01 95 1017.0
20260901101423 60 284 0.0 0.0 0.00 0.01 0.00 95 1016.9
20260901101344 60 284 0.0 0.0 0.00 0.01 0.00 95 1017.0
20260901101306 60 284 0.0 0.0 0.00 0.01 0.00 95 1016.9
20260901101200 60 284 0.0 0.0 0.00 0.01 0.00 95 1016.9
20260901101101 60 284 0.0 0.0 0.00 0.01 0.00 95 1016.9
20260901100929 60 284 0.0 0.0 0.00 0.01 0.00 95 1017.0
20260901100825 60 284 0.0 0.0 0.00 0.01 0.00 95 1017.0
20260901100635 60 284 0.0 0.0 0.00 0.01 0.00 95 1017.0
20260901100551 60 284 0.0 0.0 0.00 0.01 0.00 95 1017.0
20260901100420 60 284 0.0 0.0 0.00 0.01 0.00 95 1017.1
20260901100321 60 284 0.0 0.0 0.00 0.01 0.00 95 1017.1
20260901100124 60 284 0.0 0.0 0.00 0.01 0.00 95 1017.1
20260901100046 60 284 0.0 0.0 0.00 0.01 0.00 95 1017.1
20260901095949 60 284 0.0 0.0 0.00 0.01 0.00 95 1017.1
20260901095833 60 284 0.0 0.0 0.00 0.01 0.00 95 1017.1
20260901095754 60 284 0.0 0.0 0.00 0.01 0.00 95 1017.0
20260901095659 60 284 0.0 0.0 0.00 0.01 0.00 95 1017.1
20260901095621 60 284 0.0 0.0 0.00 0.01 0.00 95 1017.1
20260901095425 60 284 0.0 0.0 0.00 0.01 0.00 95 1017.1
20260901095326 60 284 0.0 0.0 0.00 0.01 0.00 95 1017.1
20260901095230 60 284 0.0 0.0 0.00 0.01 0.00 95 1017.0
20260901095152 60 255 0.0 0.0 0.00 0.01 0.00 95 1017.0
20260901095021 60 206 0.0 0.0 0.00 0.01 0.00 95 1017.0
20260901094915 60 206 0.0 0.0 0.00 0.01 0.00 95 1017.0
20260901094749 60 206 0.0 0.0 0.00 0.01 0.00 95 1016.9
20260901094709 60 206 0.0 0.0 0.00 0.01 0.00 95 1016.9
20260901094612 60 206 0.0 0.0 0.00 0.01 0.00 95 1016.9
20260901094515 60 206 0.0 0.0 0.00 0.01 0.00 95 1016.9
20260901094437 60 206 0.0 0.0 0.00 0.01 0.00 95 1016.9
20260901094307 60 206 0.0 0.0 0.00 0.01 0.00 95 1016.9
20260901094222 60 206 0.0 0.0 0.00 0.01 0.00 95 1016.9
20260901094032 60 206 0.0 0.0 0.00 0.01 0.00 95 1016.9
20260901093948 60 206 0.0 0.0 0.00 0.01 0.00 95 1016.9
20260901093819 60 206 0.0 0.0 0.00 0.01 0.00 95 1016.9
20260901093740 60 206 0.0 0.0 0.00 0.01 0.00 95 1016.9
20260901093604 60 206 0.0 0.0 0.00 0.01 0.00 95 1016.8
20260901093531 60 206 0.0 0.0 0.00 0.01 0.00 95 1016.8
20260901093342 60 206 0.0 0.0 0.00 0.01 0.00 95 1016.8
20260901093237 60 206 0.0 0.0 0.00 0.01 0.00 95 1016.8
20260901093131 60 206 0.0 0.0 0.00 0.01 0.00 95 1016.8
20260901093051 60 206 0.0 0.0 0.00 0.01 0.00 95 1016.7
20260901093013 60 206 0.0 0.0 0.00 0.01 0.00 95 1016.7
20260901092917 60 206 0.0 0.0 0.00 0.01 0.00 95 1016.7
20260901092838 60 206 0.0 0.0 0.00 0.01 0.00 95 1016.7
20260901092708 60 206 0.0 0.0 0.00 0.01 0.00 95 1016.7
20260901092624 60 206 0.0 0.0 0.00 0.01 0.00 95 1016.7
20260901092437 60 206 0.0 0.0 0.00 0.01 0.00 95 1016.7
20260901092333 60 206 0.0 0.0 0.00 0.01 0.00 95 1016.8
20260901092305 60 206 0.0 0.0 0.00 0.01 0.00 95 1016.8
20260901092207 60 206 0.0 0.0 0.00 0.01 0.00 95 1016.8
20260901092129 60 206 0.0 0.0 0.00 0.01 0.00 95 1016.8
20260901091933 60 206 0.0 0.0 0.00 0.01 0.00 95 1016.9
20260901091834 60 206 0.0 0.0 0.00 0.01 0.00 95 1016.9
20260901091738 60 206 0.0 0.0 0.00 0.01 0.00 95 1016.9
20260901091643 60 206 0.0 0.0 0.00 0.01 0.00 95 1016.8
20260901091604 60 206 0.0 0.0 0.00 0.01 0.00 95 1016.9
20260901091445 60 206 0.0 0.0 0.00 0.01 0.00 95 1016.8
20260901091408 60 206 0.0 0.0 0.00 0.01 0.00 95 1016.8
20260901091216 60 206 0.0 0.0 0.00 0.01 0.00 95 1016.8
20260901091131 60 206 0.0 0.0 0.00 0.01 0.00 95 1016.8
20260901090941 60 206 0.0 0.0 0.00 0.01 0.00 95 1016.8
20260901090835 60 206 0.0 0.0 0.00 0.01 0.00 95 1016.8
20260901090806 60 206 0.0 0.0 0.00 0.01 0.00 95 1016.8
20260901090707 60 206 0.0 0.0 0.00 0.01 0.00 95 1016.9
20260901090630 60 206 0.0 0.0 0.00 0.01 0.00 95 1016.9
20260901090503 60 206 0.0 0.0 0.00 0.01 0.00 95 1016.8
20260901090418 60 206 0.0 0.0 0.00 0.01 0.00 95 1016.9
20260901090227 60 206 0.0 0.0 0.00 0.01 0.00 95 1016.9
20260901090143 60 206 0.0 0.0 0.00 0.01 0.00 95 1016.9
20260901090011 60 206 0.0 0.0 0.00 0.01 0.00 95 1016.9
20260901085933 60 206 0.0 0.0 0.00 0.01 0.00 95 1016.9
20260901085717 60 206 0.0 0.0 0.00 0.01 0.00 95 1017.0
20260901085650 60 206 0.0 0.0 0.00 0.01 0.00 95 1016.9
20260901085552 60 206 0.0 0.0 0.00 0.01 0.00 95 1017.0
20260901085514 60 206 0.0 0.0 0.00 0.01 0.00 95 1017.0
20260901085438 60 206 0.0 0.0 0.00 0.01 0.00 95 1017.0
20260901085321 60 206 0.0 0.0 0.00 0.01 0.00 95 1017.0
20260901085242 60 206 0.0 0.0 0.00 0.01 0.00 95 1017.0
20260901085111 60 206 0.0 0.0 0.00 0.01 0.00 95 1016.9
20260901085027 60 206 0.0 0.0 0.00 0.01 0.00 95 1016.9
20260901084856 60 206 0.0 0.0 0.00 0.01 0.00 95 1016.8
20260901084818 60 206 0.0 0.0 0.00 0.01 0.00 95 1016.7
20260901084641 60 206 0.0 0.0 0.00 0.01 0.00 95 1016.7
20260901084542 60 206 0.0 0.0 0.00 0.01 0.00 95 1016.6
20260901084426 60 206 0.0 0.0 0.00 0.01 0.00 95 1016.6
20260901084347 60 206 0.0 0.0 0.00 0.01 0.00 95 1016.6
20260901084312 60 206 0.0 0.0 0.00 0.01 0.00 95 1016.6
20260901084155 60 206 0.0 0.0 0.00 0.01 0.00 95 1016.7
20260901084116 60 206 0.0 0.0 0.00 0.01 0.00 95 1016.7
20260901083946 60 206 0.0 0.0 0.00 0.01 0.00 95 1016.7
20260901083840 60 206 0.0 0.0 0.00 0.01 0.00 95 1016.8
20260901083659 60 206 0.0 0.0 0.00 0.01 0.00 95 1016.8
20260901083621 60 206 0.0 0.0 0.00 0.01 0.00 95 1016.8
20260901083515 60 206 0.0 0.0 0.00 0.01 0.00 95 1016.8
20260901083324 60 206 0.0 0.0 0.00 0.01 0.00 95 1016.8
20260901083238 60 206 0.0 0.0 0.00 0.01 0.00 95 1016.9
20260901083106 60 206 0.0 0.0 0.00 0.01 0.00 95 1016.9
20260901083028 60 206 0.0 0.0 0.00 0.01 0.00 95 1016.9
20260901082903 60 206 0.0 0.0 0.00 0.01 0.00 95 1017.0
20260901082819 60 206 0.0 0.0 0.00 0.01 0.00 95 1017.0
20260901082622 60 206 0.0 0.0 0.00 0.01 0.00 95 1017.0
20260901082536 60 206 0.0 0.0 0.00 0.01 0.00 95 1017.0
20260901082406 60 206 0.0 0.0 0.00 0.01 0.00 95 1017.0
20260901082328 60 206 0.0 0.0 0.00 0.01 0.00 95 1017.0
20260901082130 60 206 0.0 0.0 0.00 0.01 0.00 95 1017.0
20260901082052 60 206 0.0 0.0 0.00 0.01 0.00 95 1017.0
20260901081935 60 206 0.0 0.0 0.00 0.01 0.00 95 1017.0
20260901081856 60 206 0.0 0.0 0.00 0.01 0.00 95 1017.0
20260901081729 60 206 0.0 0.0 0.00 0.01 0.00 95 1017.0
20260901081624 60 206 0.0 0.0 0.00 0.01 0.00 95 1017.0
20260901081434 60 206 0.0 0.0 0.00 0.01 0.00 95 1017.0
20260901081328 60 206 0.0 0.0 0.00 0.01 0.00 95 1017.0
20260901081249 60 206 0.0 0.0 0.00 0.01 0.00 95 1016.9
20260901081133 60 206 0.0 0.0 0.00 0.01 0.00 95 1016.9
20260901081054 60 206 0.0 0.0 0.00 0.01 0.00 95 1016.9
20260901080958 59 206 0.0 0.0 0.00 0.01 0.00 95 1016.9
20260901080919 60 206 0.0 0.0 0.00 0.01 0.00 95 1016.9
20260901080802 60 206 0.0 0.0 0.00 0.01 0.00 95 1016.8
20260901080720 60 206 0.0 0.0 0.00 0.01 0.00 95 1016.8
20260901080531 60 206 0.0 0.0 0.00 0.01 0.00 95 1016.8
20260901080446 60 206 0.0 0.0 0.00 0.01 0.00 95 1016.8
20260901080252 60 206 0.0 0.0 0.00 0.01 0.00 94 1016.9
20260901080213 60 206 0.0 0.0 0.00 0.01 0.00 94 1017.0
20260901080044 60 206 0.0 0.0 0.00 0.01 0.00 95 1017.0
20260901075939 60 206 0.0 0.0 0.00 0.01 0.00 95 1017.0
20260901075727 60 206 0.0 0.0 0.00 0.01 0.00 95 1017.0
20260901075623 59 206 0.0 0.0 0.00 0.01 0.00 95 1017.0
20260901075521 60 206 0.0 0.0 0.00 0.01 0.00 95 1017.0
20260901075432 60 206 0.0 0.0 0.00 0.01 0.00 95 1017.0
20260901075348 60 206 0.0 0.0 0.00 0.01 0.00 95 1017.0
20260901075207 60 206 0.0 0.0 0.00 0.01 0.00 95 1017.0
20260901075015 60 206 0.0 0.0 0.00 0.01 0.00 95 1016.9
20260901074931 60 206 0.0 0.0 0.00 0.01 0.00 95 1016.9
20260901074811 60 206 0.0 0.0 0.00 0.01 0.00 95 1016.9
20260901074732 60 206 0.0 0.0 0.00 0.01 0.00 95 1016.9
20260901074514 60 206 0.0 0.0 0.00 0.01 0.00 95 1016.9
20260901074446 60 206 0.0 0.0 0.00 0.01 0.00 95 1016.9
20260901074352 60 206 0.0 0.0 0.00 0.01 0.00 95 1016.9
20260901074230 60 206 0.0 0.0 0.00 0.01 0.00 95 1016.9
20260901074133 60 206 0.0 0.0 0.00 0.01 0.00 95 1016.9
20260901074034 60 206 0.0 0.0 0.00 0.01 0.00 95 1016.9
20260901073913 59 206 0.0 0.0 0.00 0.01 0.00 95 1016.9
20260901073828 60 206 0.0 0.0 0.00 0.01 0.00 95 1016.9
20260901073657 59 206 0.0 0.0 0.00 0.01 0.00 95 1017.0
20260901073620 59 206 0.0 0.0 0.00 0.01 0.00 94 1017.1
20260901073423 59 206 0.0 0.0 0.00 0.01 0.00 95 1017.1
20260901073344 59 206 0.0 0.0 0.00 0.01 0.00 95 1017.1
20260901073238 59 206 0.0 0.0 0.00 0.01 0.00 95 1017.1
20260901073143 59 206 0.0 0.0 0.00 0.01 0.00 95 1017.1
20260901073025 59 206 0.0 0.0 0.00 0.01 0.00 95 1017.1
20260901072946 59 206 0.0 0.0 0.00 0.01 0.00 94 1017.1
20260901072829 59 206 0.0 0.0 0.00 0.01 0.00 94 1017.1
20260901072729 59 206 0.0 0.0 0.00 0.01 0.00 94 1017.1
20260901072642 59 206 0.0 0.0 0.00 0.01 0.00 94 1017.0
20260901072605 59 206 0.0 0.0 0.00 0.01 0.00 94 1017.0
20260901072527 59 206 0.0 0.0 0.00 0.01 0.00 94 1017.0
20260901072335 59 206 0.0 0.0 0.00 0.01 0.00 94 1017.1
20260901072230 59 206 0.0 0.0 0.00 0.01 0.00 95 1017.1
20260901072103 59 206 0.0 0.0 0.00 0.01 0.00 95 1017.1
20260901072026 59 206 0.0 0.0 0.00 0.01 0.00 95 1017.1
20260901071829 59 206 0.0 0.0 0.00 0.01 0.00 95 1017.1
20260901071750 59 206 0.0 0.0 0.00 0.01 0.00 95 1017.1
20260901071653 59 206 0.0 0.0 0.00 0.01 0.00 94 1017.1
20260901071614 59 206 0.0 0.0 0.00 0.01 0.00 94 1017.1
20260901071445 59 206 0.0 0.0 0.00 0.01 0.00 94 1017.0
20260901071340 59 206 0.0 0.0 0.00 0.01 0.00 94 1017.0
20260901071233 59 206 0.0 0.0 0.00 0.01 0.00 94 1017.0
20260901071153 59 206 0.0 0.0 0.00 0.01 0.00 94 1017.0
20260901071120 59 206 0.0 0.0 0.00 0.01 0.00 94 1017.0
20260901071000 59 206 0.0 0.0 0.00 0.01 0.00 94 1017.1
20260901070928 59 206 0.0 0.0 0.00 0.01 0.00 94 1017.1
20260901070756 59 206 0.0 0.0 0.00 0.01 0.00 94 1017.2
20260901070718 59 206 0.0 0.0 0.00 0.01 0.00 94 1017.2
20260901070540 59 206 0.0 0.0 0.00 0.01 0.00 94 1017.2
20260901070441 60 206 0.0 0.0 0.00 0.01 0.00 94 1017.2
20260901070325 60 206 0.0 0.0 0.00 0.01 0.00 94 1017.2
20260901070246 59 206 0.0 0.0 0.00 0.01 0.00 95 1017.1
20260901070151 60 206 0.0 0.0 0.00 0.01 0.00 94 1017.1
20260901070034 59 206 0.0 0.0 0.00 0.01 0.00 94 1017.1
20260901065955 59 206 0.0 0.0 0.00 0.01 0.00 94 1017.2
20260901065839 60 206 0.0 0.0 0.00 0.01 0.00 95 1017.1
20260901065737 60 206 0.0 0.0 0.00 0.01 0.00 94 1017.2
20260901065638 60 206 0.0 0.0 0.00 0.01 0.00 94 1017.2
20260901065601 59 206 0.0 0.0 0.00 0.01 0.00 95 1017.2
20260901065429 60 206 0.0 0.0 0.00 0.01 0.00 95 1017.2
20260901065323 60 206 0.0 0.0 0.00 0.01 0.00 95 1017.2
20260901065153 60 206 0.0 0.0 0.00 0.01 0.00 95 1017.1
20260901065115 59 206 0.0 0.0 0.00 0.01 0.00 95 1017.1
20260901064940 59 206 0.0 0.0 0.00 0.01 0.00 95 1017.2
20260901064844 60 206 0.0 0.0 0.00 0.01 0.00 95 1017.2
20260901064727 59 206 0.0 0.0 0.00 0.01 0.00 95 1017.2
20260901064649 59 206 0.0 0.0 0.00 0.01 0.00 95 1017.2
20260901064520 59 206 0.0 0.0 0.00 0.01 0.00 95 1017.2
20260901064412 59 206 0.0 0.0 0.00 0.01 0.00 94 1017.2
20260901064230 59 206 0.0 0.0 0.00 0.01 0.00 94 1017.3
20260901064130 59 206 0.0 0.0 0.00 0.01 0.00 94 1017.3
20260901064013 59 206 0.0 0.0 0.00 0.01 0.00 94 1017.3
20260901063936 59 206 0.0 0.0 0.00 0.01 0.00 94 1017.3
20260901063805 59 206 0.0 0.0 0.00 0.01 0.00 94 1017.3
20260901063720 59 206 0.0 0.0 0.00 0.01 0.00 94 1017.3
20260901063550 59 206 0.0 0.0 0.00 0.01 0.00 94 1017.3
20260901063515 59 206 0.0 0.0 0.00 0.01 0.00 94 1017.2
20260901063358 59 206 0.0 0.0 0.00 0.01 0.00 94 1017.2
20260901063320 59 206 0.0 0.0 0.00 0.01 0.00 94 1017.3
20260901063132 59 206 0.0 0.0 0.00 0.01 0.00 94 1017.3
20260901063024 59 206 0.0 0.0 0.00 0.01 0.00 95 1017.2
20260901062946 59 206 0.0 0.0 0.00 0.01 0.00 94 1017.2
20260901062849 59 206 0.0 0.0 0.00 0.01 0.00 94 1017.2
20260901062728 59 206 0.0 0.0 0.00 0.01 0.00 94 1017.2
20260901062630 59 206 0.0 0.0 0.00 0.01 0.00 94 1017.2
20260901062551 59 206 0.0 0.0 0.00 0.01 0.00 94 1017.2
20260901062455 59 206 0.0 0.0 0.00 0.01 0.00 94 1017.2
20260901062319 59 206 0.0 0.0 0.00 0.01 0.00 94 1017.2
20260901062149 59 206 0.0 0.0 0.00 0.01 0.00 94 1017.3
20260901062043 59 206 0.0 0.0 0.00 0.01 0.00 94 1017.3
20260901061913 59 206 0.0 0.0 0.00 0.01 0.00 94 1017.4
20260901061815 59 206 0.0 0.0 0.00 0.01 0.00 94 1017.4
20260901061625 59 206 0.0 0.0 0.00 0.01 0.00 94 1017.4
20260901061547 59 206 0.0 0.0 0.00 0.01 0.00 94 1017.5
20260901061430 59 206 0.0 0.0 0.00 0.01 0.00 94 1017.5
20260901061346 59 206 0.0 0.0 0.00 0.01 0.00 95 1017.6
20260901061227 60 206 0.0 0.0 0.00 0.01 0.00 94 1017.6
20260901061149 59 206 0.0 0.0 0.00 0.01 0.00 95 1017.6
20260901061110 60 206 0.0 0.0 0.00 0.01 0.00 95 1017.5
20260901061016 60 206 0.0 0.0 0.00 0.01 0.00 95 1017.6
20260901060937 60 206 0.0 0.0 0.00 0.01 0.00 95 1017.6
20260901060808 60 206 0.0 0.0 0.00 0.01 0.00 95 1017.5
20260901060723 60 206 0.0 0.0 0.00 0.01 0.00 95 1017.5
20260901060552 60 206 0.0 0.0 0.00 0.01 0.00 95 1017.5
20260901060515 60 206 0.0 0.0 0.00 0.01 0.00 95 1017.5
20260901060337 60 206 0.0 0.0 0.00 0.01 0.00 95 1017.5
20260901060238 60 206 0.0 0.0 0.00 0.01 0.00 95 1017.5
20260901060126 60 206 0.0 0.0 0.00 0.01 0.00 95 1017.5
20260901060048 60 206 0.0 0.0 0.00 0.01 0.00 95 1017.6
20260901055917 60 206 0.0 0.0 0.00 0.01 0.00 95 1017.6
20260901055831 60 206 0.0 0.0 0.00 0.01 0.00 95 1017.6
20260901055641 60 206 0.0 0.0 0.00 0.01 0.00 95 1017.5
20260901055535 60 206 0.0 0.0 0.00 0.01 0.00 95 1017.5
20260901055431 60 206 0.0 0.0 0.00 0.01 0.00 95 1017.5
20260901055354 60 206 0.0 0.0 0.00 0.01 0.00 95 1017.5
20260901055140 60 206 0.0 0.0 0.00 0.01 0.00 95 1017.6
20260901055040 60 206 0.0 0.0 0.00 0.01 0.00 95 1017.6
20260901054943 60 206 0.0 0.0 0.00 0.01 0.00 95 1017.7
20260901054905 60 206 0.0 0.0 0.00 0.01 0.00 95 1017.7
20260901054713 60 206 0.0 0.0 0.00 0.01 0.00 95 1017.8
20260901054627 60 206 0.0 0.0 0.00 0.01 0.00 95 1017.8
20260901054437 60 206 0.0 0.0 0.00 0.01 0.00 95 1017.8
20260901054331 60 206 0.0 0.0 0.00 0.01 0.00 95 1017.8
20260901054251 59 206 0.0 0.0 0.00 0.01 0.00 95 1017.8
20260901054204 59 206 0.0 0.0 0.00 0.01 0.00 95 1017.8
20260901054130 59 206 0.0 0.0 0.00 0.01 0.00 95 1017.8
20260901053959 59 206 0.0 0.0 0.00 0.01 0.00 95 1017.8
20260901053901 59 206 0.0 0.0 0.00 0.01 0.00 95 1017.8
20260901053742 59 206 0.0 0.0 0.00 0.01 0.00 95 1017.7
20260901053704 59 206 0.0 0.0 0.00 0.01 0.00 95 1017.7
20260901053512 59 206 0.0 0.0 0.00 0.01 0.00 95 1017.8
20260901053428 59 206 0.0 0.0 0.00 0.01 0.00 95 1017.8
20260901053256 59 206 0.0 0.0 0.00 0.01 0.00 95 1017.7
20260901053156 59 206 0.0 0.0 0.00 0.01 0.00 95 1017.7
20260901053059 59 206 0.0 0.0 0.00 0.01 0.00 95 1017.7
20260901053022 59 206 0.0 0.0 0.00 0.01 0.00 95 1017.7
20260901052944 59 206 0.0 0.0 0.00 0.01 0.00 95 1017.7
20260901052806 59 206 0.0 0.0 0.00 0.01 0.00 95 1017.7
20260901052732 59 206 0.0 0.0 0.00 0.01 0.00 95 1017.7
20260901052542 59 206 0.0 0.0 0.00 0.01 0.00 95 1017.7
20260901052436 59 206 0.0 0.0 0.00 0.01 0.00 95 1017.7
20260901052408 59 206 0.0 0.0 0.00 0.01 0.00 95 1017.7
20260901052311 59 206 0.0 0.0 0.00 0.01 0.00 95 1017.7
20260901052233 59 206 0.0 0.0 0.00 0.01 0.00 95 1017.7
20260901052037 59 206 0.0 0.0 0.00 0.01 0.00 95 1017.9
20260901051938 59 206 0.0 0.0 0.00 0.01 0.00 95 1017.9
20260901051824 59 206 0.0 0.0 0.00 0.01 0.00 95 1017.9
20260901051745 59 206 0.0 0.0 0.00 0.01 0.00 95 1017.9
20260901051625 59 206 0.0 0.0 0.00 0.01 0.00 95 1017.9
20260901051548 59 206 0.0 0.0 0.00 0.01 0.00 95 1017.9
20260901051417 59 206 0.0 0.0 0.00 0.01 0.00 95 1018.0
20260901051331 59 206 0.0 0.0 0.00 0.01 0.00 95 1017.9
20260901051139 59 206 0.0 0.0 0.00 0.01 0.00 95 1018.0
20260901051040 59 206 0.0 0.0 0.00 0.01 0.00 95 1018.0
20260901050842 59 206 0.0 0.0 0.00 0.01 0.00 95 1018.0
20260901050803 59 206 0.0 0.0 0.00 0.01 0.00 95 1018.0
20260901050705 59 206 0.0 0.0 0.00 0.01 0.00 95 1018.0
20260901050627 59 206 0.0 0.0 0.00 0.01 0.00 95 1018.0
20260901050501 59 206 0.0 0.0 0.00 0.01 0.00 95 1018.0
20260901050423 59 206 0.0 0.0 0.00 0.01 0.00 95 1018.0
20260901050226 59 206 0.0 0.0 0.00 0.01 0.00 95 1018.0
20260901050147 59 206 0.0 0.0 0.00 0.01 0.00 95 1018.0
20260901050052 59 206 0.0 0.0 0.00 0.01 0.00 95 1018.0
20260901050012 59 206 0.0 0.0 0.00 0.01 0.00 95 1018.0
20260901045751 59 206 0.0 0.0 0.00 0.01 0.00 95 1017.9
20260901045645 59 206 0.0 0.0 0.00 0.01 0.00 95 1017.9
20260901045514 59 206 0.0 0.0 0.00 0.01 0.00 95 1017.9
20260901045437 59 206 0.0 0.0 0.00 0.01 0.00 95 1017.9
20260901045223 59 206 0.0 0.0 0.00 0.01 0.00 95 1017.9
20260901045144 59 206 0.0 0.0 0.00 0.01 0.00 95 1017.9
20260901045049 59 206 0.0 0.0 0.00 0.01 0.00 95 1017.9
20260901045011 59 206 0.0 0.0 0.00 0.01 0.00 95 1017.8
20260901044840 59 206 0.0 0.0 0.00 0.01 0.00 95 1017.8
20260901044733 58 206 0.0 0.0 0.00 0.01 0.00 95 1017.8
20260901044544 58 206 0.0 0.0 0.00 0.01 0.00 95 1017.9
20260901044458 58 206 0.0 0.0 0.00 0.01 0.00 95 1017.9
20260901044307 58 206 0.0 0.0 0.00 0.01 0.00 95 1018.0
20260901044230 58 206 0.0 0.0 0.00 0.01 0.00 95 1018.0
20260901044054 58 206 0.0 0.0 0.00 0.01 0.00 95 1018.0
20260901044015 58 206 0.0 0.0 0.00 0.01 0.00 95 1018.0
20260901043828 58 206 0.0 0.0 0.00 0.01 0.00 95 1018.1
20260901043742 58 206 0.0 0.0 0.00 0.01 0.00 95 1018.0
20260901043644 58 206 0.0 0.0 0.00 0.01 0.00 95 1018.0
20260901043527 58 206 0.0 0.0 0.00 0.01 0.00 95 1018.0
20260901043448 58 206 0.0 0.0 0.00 0.01 0.00 95 1018.0
20260901043340 58 206 0.0 0.0 0.00 0.01 0.00 95 1018.0
20260901043240 58 206 0.0 0.0 0.00 0.01 0.00 95 1018.0
20260901043110 58 206 0.0 0.0 0.00 0.01 0.00 95 1018.0
20260901043025 58 206 0.0 0.0 0.00 0.01 0.00 95 1018.0
20260901042854 58 206 0.0 0.0 0.00 0.01 0.00 95 1018.0
20260901042822 58 206 0.0 0.0 0.00 0.01 0.00 95 1018.0
20260901042714 58 206 0.0 0.0 0.00 0.01 0.00 95 1018.1
20260901042544 58 206 0.0 0.0 0.00 0.01 0.00 95 1018.0
20260901042507 58 206 0.0 0.0 0.00 0.01 0.00 95 1018.1
20260901042335 58 206 0.0 0.0 0.00 0.01 0.00 95 1018.2
20260901042229 58 206 0.0 0.0 0.00 0.01 0.00 95 1018.2
20260901042058 58 206 0.0 0.0 0.00 0.01 0.00 94 1018.2
20260901042022 58 206 0.0 0.0 0.00 0.01 0.00 94 1018.2
20260901041936 58 206 0.0 0.0 0.00 0.01 0.00 95 1018.2
20260901041805 58 206 0.0 0.0 0.00 0.01 0.00 94 1018.2
20260901041726 58 206 0.0 0.0 0.00 0.01 0.00 94 1018.2
20260901041528 58 206 0.0 0.0 0.00 0.01 0.00 94 1018.1
20260901041453 58 206 0.0 0.0 0.00 0.01 0.00 94 1018.1
20260901041335 58 206 0.0 0.0 0.00 0.01 0.00 94 1018.1
20260901041257 58 206 0.0 0.0 0.00 0.01 0.00 94 1018.1
20260901041039 58 206 0.0 0.0 0.00 0.01 0.00 94 1018.1
20260901040941 58 206 0.0 0.0 0.00 0.01 0.00 94 1018.0
20260901040842 58 206 0.0 0.0 0.00 0.01 0.00 94 1018.1
20260901040805 58 206 0.0 0.0 0.00 0.01 0.00 94 1018.0
20260901040633 58 206 0.0 0.0 0.00 0.01 0.00 94 1018.0
20260901040527 58 206 0.0 0.0 0.00 0.01 0.00 94 1018.0
20260901040340 58 206 0.0 0.0 0.00 0.01 0.00 94 1017.9
20260901040234 58 206 0.0 0.0 0.00 0.01 0.00 94 1017.9
20260901040127 58 206 0.0 0.0 0.00 0.01 0.00 94 1017.9
20260901040028 58 206 0.0 0.0 0.00 0.01 0.00 94 1017.9
20260901035931 58 206 0.0 0.0 0.00 0.01 0.00 93 1017.9
20260901035853 58 206 0.0 0.0 0.00 0.01 0.01 93 1018.0
20260901035611 58 206 0.0 0.0 0.00 0.01 0.01 93 1017.9
20260901035527 58 206 0.0 0.0 0.00 0.01 0.01 93 1017.9
20260901035355 58 206 0.0 0.0 0.00 0.01 0.01 93 1017.9
20260901035317 58 206 0.0 0.0 0.00 0.01 0.01 93 1017.9
20260901035126 58 206 0.0 0.0 0.00 0.01 0.01 94 1017.8
20260901035029 58 206 0.0 0.0 0.00 0.01 0.01 94 1017.7
20260901034932 58 206 0.0 0.0 0.00 0.01 0.01 94 1017.7
20260901034852 58 206 0.0 0.0 0.00 0.01 0.01 94 1017.7
20260901034752 58 206 0.0 0.0 0.00 0.01 0.01 94 1017.7
20260901034655 58 206 0.0 0.0 0.00 0.01 0.01 94 1017.7
20260901034554 58 206 0.0 0.0 0.00 0.01 0.01 94 1017.6
20260901034514 58 206 0.0 0.0 0.00 0.01 0.01 94 1017.6
20260901034357 58 206 0.0 0.0 0.00 0.01 0.01 94 1017.6
20260901034319 58 206 0.0 0.0 0.00 0.01 0.01 94 1017.6
20260901034128 58 206 0.0 0.0 0.00 0.01 0.01 93 1017.7
20260901034030 58 206 0.0 0.0 0.00 0.01 0.01 93 1017.7
20260901033933 58 206 0.0 0.0 0.00 0.01 0.01 93 1017.7
20260901033835 58 206 0.0 0.0 0.00 0.01 0.01 93 1017.7
20260901033756 58 206 0.0 0.0 0.00 0.01 0.01 93 1017.7
20260901033658 58 206 0.0 0.0 0.00 0.01 0.01 94 1017.7
20260901033621 58 206 0.0 0.0 0.00 0.01 0.01 93 1017.7
20260901033426 58 206 0.0 0.0 0.00 0.01 0.01 93 1017.7
20260901033326 58 206 0.0 0.0 0.00 0.01 0.01 93 1017.7
20260901033233 58 206 0.0 0.0 0.00 0.01 0.01 94 1017.7
20260901033155 58 206 0.0 0.0 0.00 0.01 0.01 93 1017.7
20260901033024 58 206 0.0 0.0 0.00 0.01 0.01 93 1017.7
20260901032916 58 206 0.0 0.0 0.00 0.01 0.01 93 1017.6
20260901032817 58 206 0.0 0.0 0.00 0.01 0.01 93 1017.6
20260901032727 59 206 0.0 0.0 0.00 0.01 0.01 94 1017.7
20260901032619 59 206 0.0 0.0 0.00 0.01 0.01 94 1017.7
20260901032429 59 206 0.0 0.0 0.00 0.01 0.01 94 1017.6
20260901032345 59 206 0.0 0.0 0.00 0.01 0.01 94 1017.5
20260901032214 59 206 0.0 0.0 0.00 0.01 0.01 93 1017.5
20260901032137 59 206 0.0 0.0 0.00 0.01 0.01 93 1017.5
20260901031924 59 206 0.0 0.0 0.00 0.01 0.01 93 1017.4
20260901031846 59 206 0.0 0.0 0.00 0.01 0.01 93 1017.4
20260901031750 59 206 0.0 0.0 0.00 0.01 0.01 94 1017.4
20260901031711 59 206 0.0 0.0 0.00 0.01 0.01 94 1017.4
20260901031611 59 206 0.0 0.0 0.00 0.01 0.01 94 1017.4
20260901031515 59 206 0.0 0.0 0.00 0.01 0.01 94 1017.4
20260901031437 59 206 0.0 0.0 0.00 0.01 0.01 94 1017.4
20260901031308 59 206 0.0 0.0 0.00 0.01 0.01 94 1017.4
20260901031223 59 206 0.0 0.0 0.00 0.01 0.01 94 1017.4
20260901031054 59 206 0.0 0.0 0.00 0.01 0.01 94 1017.5
20260901031015 59 206 0.0 0.0 0.00 0.01 0.01 94 1017.4
20260901030846 59 206 0.0 0.0 0.00 0.01 0.01 94 1017.5
20260901030744 59 206 0.0 0.0 0.00 0.01 0.01 94 1017.5
20260901030614 59 206 0.0 0.0 0.00 0.01 0.01 94 1017.5
20260901030536 59 206 0.0 0.0 0.00 0.01 0.01 94 1017.5
20260901030338 59 206 0.0 0.0 0.00 0.01 0.01 94 1017.6
20260901030300 59 206 0.0 0.0 0.00 0.01 0.01 94 1017.6
20260901030124 59 206 0.0 0.0 0.00 0.01 0.01 94 1017.6
20260901030040 59 206 0.0 0.0 0.00 0.01 0.01 94 1017.6
20260901025910 59 206 0.0 0.0 0.00 0.01 0.01 93 1017.6
20260901025832 59 206 0.0 0.0 0.00 0.01 0.01 93 1017.6
20260901025655 59 206 0.0 0.0 0.00 0.01 0.01 93 1017.7
20260901025621 59 206 0.0 0.0 0.00 0.01 0.01 93 1017.8
20260901025430 59 206 0.0 0.0 0.00 0.01 0.01 93 1017.8
20260901025317 59 206 0.0 0.0 0.00 0.01 0.01 93 1017.8
20260901025220 59 206 0.0 0.0 0.00 0.01 0.01 93 1017.8
20260901025121 59 206 0.0 0.0 0.00 0.01 0.01 93 1017.7
20260901024951 59 206 0.0 0.0 0.00 0.01 0.01 93 1017.7
20260901024855 59 206 0.0 0.0 0.00 0.01 0.01 93 1017.7
20260901024816 59 206 0.0 0.0 0.00 0.01 0.01 93 1017.7
20260901024647 59 206 0.0 0.0 0.00 0.01 0.01 93 1017.7
20260901024602 59 206 0.0 0.0 0.00 0.01 0.01 93 1017.7
20260901024437 59 206 0.0 0.0 0.00 0.01 0.01 93 1017.7
20260901024337 59 206 0.0 0.0 0.00 0.01 0.01 93 1017.7
20260901024148 59 206 0.0 0.0 0.00 0.01 0.01 93 1017.7
20260901024043 59 206 0.0 0.0 0.00 0.01 0.01 93 1017.7
20260901023912 59 206 0.0 0.0 0.00 0.01 0.01 93 1017.7
20260901023835 59 206 0.0 0.0 0.00 0.01 0.01 93 1017.7
20260901023638 59 206 0.0 0.0 0.00 0.01 0.01 93 1017.8
20260901023559 59 206 0.0 0.0 0.00 0.01 0.01 93 1017.9
20260901023423 59 206 0.0 0.0 0.00 0.01 0.01 93 1017.9
20260901023338 59 206 0.0 0.0 0.00 0.01 0.01 93 1017.9
20260901023211 59 206 0.0 0.0 0.00 0.01 0.01 93 1017.8
20260901023134 59 206 0.0 0.0 0.00 0.01 0.01 93 1017.8
20260901022938 59 206 0.0 0.0 0.00 0.01 0.01 93 1017.8
20260901022858 59 206 0.0 0.0 0.00 0.01 0.01 93 1017.8
20260901022740 59 206 0.0 0.0 0.00 0.01 0.01 93 1017.9
20260901022701 59 206 0.0 0.0 0.00 0.01 0.01 93 1017.9
20260901022525 59 206 0.0 0.0 0.00 0.01 0.01 93 1017.9
20260901022446 59 206 0.0 0.0 0.00 0.01 0.01 93 1017.8
20260901022306 59 206 0.0 0.0 0.00 0.01 0.01 93 1017.8
20260901022124 59 206 0.0 0.0 0.00 0.01 0.01 93 1017.8
20260901022027 59 206 0.0 0.0 0.00 0.01 0.01 93 1017.8
20260901021948 59 206 0.0 0.0 0.00 0.01 0.01 93 1017.8
20260901021847 59 206 0.0 0.0 0.00 0.01 0.01 93 1017.7
20260901021730 59 206 0.0 0.0 0.00 0.01 0.01 93 1017.7
20260901021626 59 206 0.0 0.0 0.00 0.01 0.01 93 1017.7
20260901021528 59 206 0.0 0.0 0.00 0.01 0.01 92 1017.7
20260901021444 59 206 0.0 0.0 0.00 0.01 0.01 92 1017.7
20260901021312 59 206 0.0 0.0 0.00 0.01 0.01 92 1017.6
20260901021217 59 206 0.0 0.0 0.00 0.01 0.01 92 1017.6
20260901021048 59 206 0.0 0.0 0.00 0.01 0.01 92 1017.6
20260901020941 60 206 0.0 0.0 0.00 0.01 0.01 92 1017.6
20260901020824 60 206 0.0 0.0 0.00 0.01 0.01 92 1017.7
20260901020744 60 206 0.0 0.0 0.00 0.01 0.01 92 1017.7
20260901020615 60 206 0.0 0.0 0.00 0.01 0.01 92 1017.6
20260901020530 60 206 0.0 0.0 0.00 0.01 0.01 92 1017.6
20260901020340 60 206 0.0 0.0 0.00 0.01 0.01 92 1017.6
20260901020235 60 206 0.0 0.0 0.00 0.01 0.01 92 1017.6
20260901020121 60 206 0.0 0.0 0.00 0.01 0.01 92 1017.6
20260901020025 60 206 0.0 0.0 0.00 0.01 0.01 92 1017.6
20260901015940 60 206 0.0 0.0 0.00 0.01 0.01 92 1017.6
20260901015809 60 206 0.0 0.0 0.00 0.01 0.01 92 1017.7
20260901015731 60 206 0.0 0.0 0.00 0.01 0.01 92 1017.7
20260901015535 60 206 0.0 0.0 0.00 0.01 0.01 92 1017.7
20260901015456 60 206 0.0 0.0 0.00 0.01 0.01 92 1017.7
20260901015340 60 206 0.0 0.0 0.00 0.01 0.01 92 1017.7
20260901015305 60 206 0.0 0.0 0.00 0.01 0.01 92 1017.7
20260901015114 60 206 0.0 0.0 0.00 0.01 0.01 92 1017.7
20260901015030 60 206 0.0 0.0 0.00 0.01 0.01 92 1017.7